Observation data for Fritch on 11/09/2019      Previous  Date       Current Mesonet Observations  Soil Data  Daily Summary Page  Observations in Plain Language
KFR1 090600Z 22008KT 06/04 A3026 RMK A01 T00580039  RH  088%=      5-min Rain = 0
KFR1 090601Z 22007KT 06/04 A3026 RMK A01 T00580040  RH  088%=      5-min Rain = 0
KFR1 090602Z 22007KT 06/04 A3026 RMK A01 T00580039  RH  088%=      5-min Rain = 0
KFR1 090603Z 22007KT 06/04 A3026 RMK A01 T00570039  RH  088%=      5-min Rain = 0
KFR1 090604Z 22007KT 06/04 A3026 RMK A01 T00570039  RH  088%=      5-min Rain = 0
KFR1 090605Z 22007KT 06/04 A3026 RMK A01 T00570039  RH  088%=      5-min Rain = 0
KFR1 090606Z 22008KT 06/04 A3026 RMK A01 T00570039  RH  088%=      5-min Rain = 0
KFR1 090607Z 22008KT 06/04 A3026 RMK A01 T00570039  RH  088%=      5-min Rain = 0
KFR1 090608Z 22007KT 06/04 A3026 RMK A01 T00580040  RH  088%=      5-min Rain = 0
KFR1 090609Z 22008KT 06/04 A3026 RMK A01 T00580040  RH  088%=      5-min Rain = 0
KFR1 090610Z 22007KT 06/04 A3026 RMK A01 T00580040  RH  088%=      5-min Rain = 0
KFR1 090611Z 22007KT 06/04 A3026 RMK A01 T00580039  RH  088%=      5-min Rain = 0
KFR1 090612Z 22008KT 06/04 A3026 RMK A01 T00570039  RH  088%=      5-min Rain = 0
KFR1 090613Z 22008KT 06/04 A3026 RMK A01 T00570040  RH  089%=      5-min Rain = 0
KFR1 090614Z 22008KT 06/04 A3026 RMK A01 T00580040  RH  088%=      5-min Rain = 0
KFR1 090615Z 22009KT 06/04 A3026 RMK A01 T00580040  RH  088%=      5-min Rain = 0
KFR1 090616Z 22008KT 06/04 A3026 RMK A01 T00580040  RH  088%=      5-min Rain = 0
KFR1 090617Z 22008KT 06/04 A3026 RMK A01 T00570039  RH  088%=      5-min Rain = 0
KFR1 090618Z 22008KT 06/04 A3026 RMK A01 T00580040  RH  088%=      5-min Rain = 0
KFR1 090619Z 22007KT 06/04 A3026 RMK A01 T00580040  RH  088%=      5-min Rain = 0
KFR1 090620Z 22008KT 06/04 A3026 RMK A01 T00580040  RH  088%=      5-min Rain = 0
KFR1 090621Z 22008KT 06/04 A3026 RMK A01 T00580040  RH  088%=      5-min Rain = 0
KFR1 090622Z 22008KT 06/04 A3026 RMK A01 T00580040  RH  088%=      5-min Rain = 0
KFR1 090623Z 22008KT 06/04 A3026 RMK A01 T00580040  RH  088%=      5-min Rain = 0
KFR1 090624Z 22008KT 06/04 A3026 RMK A01 T00590040  RH  088%=      5-min Rain = 0
KFR1 090625Z 22008KT 06/04 A3026 RMK A01 T00590040  RH  088%=      5-min Rain = 0
KFR1 090626Z 22007KT 06/04 A3026 RMK A01 T00590040  RH  088%=      5-min Rain = 0
KFR1 090627Z 22008KT 06/04 A3026 RMK A01 T00580040  RH  088%=      5-min Rain = 0
KFR1 090628Z 22007KT 06/04 A3026 RMK A01 T00580039  RH  088%=      5-min Rain = 0
KFR1 090629Z 22007KT 06/04 A3026 RMK A01 T00580039  RH  088%=      5-min Rain = 0
KFR1 090630Z 22008KT 06/04 A3026 RMK A01 T00580039  RH  088%=      5-min Rain = 0
KFR1 090631Z 22008KT 06/04 A3026 RMK A01 T00580039  RH  088%=      5-min Rain = 0
KFR1 090632Z 22008KT 06/04 A3026 RMK A01 T00580039  RH  088%=      5-min Rain = 0
KFR1 090633Z 22008KT 06/04 A3026 RMK A01 T00580039  RH  088%=      5-min Rain = 0
KFR1 090634Z 22008KT 06/04 A3026 RMK A01 T00570039  RH  088%=      5-min Rain = 0
KFR1 090635Z 22009KT 06/04 A3026 RMK A01 T00570039  RH  088%=      5-min Rain = 0
KFR1 090636Z 22009KT 06/04 A3026 RMK A01 T00570039  RH  088%=      5-min Rain = 0
KFR1 090637Z 22008KT 06/04 A3026 RMK A01 T00570039  RH  088%=      5-min Rain = 0
KFR1 090638Z 22008KT 06/04 A3026 RMK A01 T00570039  RH  088%=      5-min Rain = 0
KFR1 090639Z 22008KT 06/04 A3025 RMK A01 T00570039  RH  088%=      5-min Rain = 0
KFR1 090640Z 22008KT 06/04 A3025 RMK A01 T00570039  RH  088%=      5-min Rain = 0
KFR1 090641Z 22008KT 06/04 A3025 RMK A01 T00570039  RH  088%=      5-min Rain = 0
KFR1 090642Z 22008KT 06/04 A3025 RMK A01 T00570039  RH  088%=      5-min Rain = 0
KFR1 090643Z 22008KT 06/04 A3025 RMK A01 T00570039  RH  088%=      5-min Rain = 0
KFR1 090644Z 22008KT 06/04 A3025 RMK A01 T00570039  RH  088%=      5-min Rain = 0
KFR1 090645Z 22008KT 06/04 A3025 RMK A01 T00570039  RH  088%=      5-min Rain = 0
KFR1 090646Z 22008KT 06/04 A3025 RMK A01 T00580040  RH  088%=      5-min Rain = 0
KFR1 090647Z 22009KT 06/04 A3025 RMK A01 T00580040  RH  088%=      5-min Rain = 0
KFR1 090648Z 23008KT 06/04 A3025 RMK A01 T00580039  RH  088%=      5-min Rain = 0
KFR1 090649Z 23008KT 06/04 A3025 RMK A01 T00560038  RH  088%=      5-min Rain = 0
KFR1 090650Z 23008KT 06/04 A3025 RMK A01 T00550037  RH  088%=      5-min Rain = 0
KFR1 090651Z 23008KT 05/04 A3025 RMK A01 T00540037  RH  089%=      5-min Rain = 0
KFR1 090652Z 23008KT 05/04 A3025 RMK A01 T00540037  RH  089%=      5-min Rain = 0
KFR1 090653Z 23008KT 05/04 A3025 RMK A01 T00530037  RH  089%=      5-min Rain = 0
KFR1 090654Z 23008KT 05/04 A3025 RMK A01 T00530037  RH  089%=      5-min Rain = 0
KFR1 090655Z 23008KT 05/04 A3025 RMK A01 T00540038  RH  089%=      5-min Rain = 0
KFR1 090656Z 23007KT 05/04 A3025 RMK A01 T00540037  RH  089%=      5-min Rain = 0
KFR1 090657Z 23008KT 05/04 A3025 RMK A01 T00530037  RH  089%=      5-min Rain = 0
KFR1 090658Z 23007KT 05/04 A3025 RMK A01 T00530037  RH  089%=      5-min Rain = 0
KFR1 090659Z 23008KT 05/04 A3025 RMK A01 T00530037  RH  089%=      5-min Rain = 0
KFR1 090700Z 23007KT 05/04 A3025 RMK A01 T00530037  RH  090%=      5-min Rain = 0
KFR1 090701Z 23007KT 05/04 A3025 RMK A01 T00530037  RH  090%=      5-min Rain = 0
KFR1 090702Z 22007KT 05/04 A3025 RMK A01 T00520036  RH  089%=      5-min Rain = 0
KFR1 090703Z 22006KT 05/04 A3025 RMK A01 T00520036  RH  090%=      5-min Rain = 0
KFR1 090704Z 22006KT 05/04 A3025 RMK A01 T00510035  RH  090%=      5-min Rain = 0
KFR1 090705Z 22006KT 05/04 A3025 RMK A01 T00500035  RH  090%=      5-min Rain = 0
KFR1 090706Z 22006KT 05/04 A3025 RMK A01 T00500036  RH  090%=      5-min Rain = 0
KFR1 090707Z 21006KT 05/04 A3025 RMK A01 T00500036  RH  090%=      5-min Rain = 0
KFR1 090708Z 21006KT 05/04 A3025 RMK A01 T00500036  RH  090%=      5-min Rain = 0
KFR1 090709Z 21007KT 05/04 A3025 RMK A01 T00500035  RH  090%=      5-min Rain = 0
KFR1 090710Z 21007KT 05/04 A3024 RMK A01 T00500035  RH  090%=      5-min Rain = 0
KFR1 090711Z 20007KT 05/03 A3024 RMK A01 T00490034  RH  090%=      5-min Rain = 0
KFR1 090712Z 20008KT 05/03 A3024 RMK A01 T00480033  RH  090%=      5-min Rain = 0
KFR1 090713Z 20008KT 05/03 A3024 RMK A01 T00470033  RH  090%=      5-min Rain = 0
KFR1 090714Z 20009KT 05/03 A3024 RMK A01 T00460033  RH  091%=      5-min Rain = 0
KFR1 090715Z 20009KT 05/03 A3024 RMK A01 T00470034  RH  091%=      5-min Rain = 0
KFR1 090721Z 21008KT 05/04 A3024 RMK A01 T00520037  RH  090%=      5-min Rain = 0
KFR1 090722Z 22007KT 05/04 A3024 RMK A01 T00520038  RH  090%=      5-min Rain = 0
KFR1 090723Z 21007KT 05/04 A3024 RMK A01 T00530038  RH  090%=      5-min Rain = 0
KFR1 090724Z 22008KT 05/04 A3024 RMK A01 T00530037  RH  089%=      5-min Rain = 0
KFR1 090725Z 22006KT 05/04 A3025 RMK A01 T00530037  RH  089%=      5-min Rain = 0
KFR1 090726Z 22006KT 05/04 A3025 RMK A01 T00530036  RH  089%=      5-min Rain = 0
KFR1 090727Z 22005KT 05/04 A3025 RMK A01 T00510035  RH  089%=      5-min Rain = 0
KFR1 090728Z 22006KT 05/03 A3025 RMK A01 T00500034  RH  090%=      5-min Rain = 0
KFR1 090729Z 22005KT 05/04 A3025 RMK A01 T00500035  RH  090%=      5-min Rain = 0
KFR1 090730Z 22006KT 05/04 A3025 RMK A01 T00490035  RH  090%=      5-min Rain = 0
KFR1 090731Z 22006KT 05/04 A3025 RMK A01 T00490035  RH  090%=      5-min Rain = 0
KFR1 090732Z 23006KT 05/03 A3025 RMK A01 T00490034  RH  090%=      5-min Rain = 0
KFR1 090733Z 23006KT 05/03 A3025 RMK A01 T00480033  RH  090%=      5-min Rain = 0
KFR1 090734Z 23006KT 05/03 A3025 RMK A01 T00480034  RH  091%=      5-min Rain = 0
KFR1 090735Z 23006KT 05/03 A3025 RMK A01 T00470033  RH  091%=      5-min Rain = 0
KFR1 090736Z 23006KT 05/03 A3024 RMK A01 T00460033  RH  091%=      5-min Rain = 0
KFR1 090737Z 23006KT 05/03 A3024 RMK A01 T00460033  RH  091%=      5-min Rain = 0
KFR1 090738Z 23006KT 05/03 A3024 RMK A01 T00450032  RH  091%=      5-min Rain = 0
KFR1 090739Z 23005KT 05/03 A3024 RMK A01 T00450033  RH  092%=      5-min Rain = 0
KFR1 090740Z 22005KT 05/03 A3024 RMK A01 T00460033  RH  092%=      5-min Rain = 0
KFR1 090741Z 22006KT 05/03 A3025 RMK A01 T00460034  RH  092%=      5-min Rain = 0
KFR1 090742Z 23006KT 05/03 A3025 RMK A01 T00460033  RH  092%=      5-min Rain = 0
KFR1 090743Z 22007KT 05/03 A3024 RMK A01 T00460033  RH  091%=      5-min Rain = 0
KFR1 090744Z 23007KT 05/03 A3024 RMK A01 T00470034  RH  092%=      5-min Rain = 0
KFR1 090745Z 22007KT 05/03 A3024 RMK A01 T00470034  RH  091%=      5-min Rain = 0
KFR1 090746Z 22006KT 05/03 A3024 RMK A01 T00470034  RH  091%=      5-min Rain = 0
KFR1 090747Z 22007KT 05/03 A3024 RMK A01 T00460033  RH  091%=      5-min Rain = 0
KFR1 090748Z 22007KT 05/04 A3024 RMK A01 T00470035  RH  092%=      5-min Rain = 0
KFR1 090749Z 21006KT 05/03 A3024 RMK A01 T00480034  RH  091%=      5-min Rain = 0
KFR1 090750Z 21006KT 05/03 A3024 RMK A01 T00480034  RH  091%=      5-min Rain = 0
KFR1 090751Z 21006KT 05/03 A3024 RMK A01 T00480034  RH  091%=      5-min Rain = 0
KFR1 090752Z 21006KT 05/03 A3024 RMK A01 T00470033  RH  090%=      5-min Rain = 0
KFR1 090753Z 20006KT 05/03 A3024 RMK A01 T00460031  RH  090%=      5-min Rain = 0
KFR1 090754Z 21006KT 04/03 A3024 RMK A01 T00440030  RH  091%=      5-min Rain = 0
KFR1 090755Z 20006KT 04/03 A3024 RMK A01 T00430029  RH  091%=      5-min Rain = 0
KFR1 090756Z 20007KT 04/03 A3024 RMK A01 T00420029  RH  091%=      5-min Rain = 0
KFR1 090757Z 20008KT 04/03 A3023 RMK A01 T00410029  RH  092%=      5-min Rain = 0
KFR1 090758Z 20009KT 04/03 A3023 RMK A01 T00420030  RH  092%=      5-min Rain = 0
KFR1 090759Z 20008KT 04/03 A3023 RMK A01 T00420031  RH  092%=      5-min Rain = 0
KFR1 090800Z 20008KT 04/03 A3023 RMK A01 T00420030  RH  092%=      5-min Rain = 0
KFR1 090801Z 20009KT 04/03 A3023 RMK A01 T00420031  RH  092%=      5-min Rain = 0
KFR1 090802Z 20009KT 04/03 A3023 RMK A01 T00430031  RH  092%=      5-min Rain = 0
KFR1 090803Z 21009KT 04/03 A3023 RMK A01 T00440032  RH  092%=      5-min Rain = 0
KFR1 090804Z 21009KT 04/03 A3023 RMK A01 T00440032  RH  092%=      5-min Rain = 0
KFR1 090805Z 21008KT 05/03 A3023 RMK A01 T00450033  RH  092%=      5-min Rain = 0
KFR1 090806Z 20009KT 05/03 A3023 RMK A01 T00460033  RH  091%=      5-min Rain = 0
KFR1 090807Z 20009KT 05/03 A3023 RMK A01 T00460032  RH  091%=      5-min Rain = 0
KFR1 090808Z 20008KT 05/03 A3023 RMK A01 T00470033  RH  091%=      5-min Rain = 0
KFR1 090809Z 20009KT 05/03 A3023 RMK A01 T00460032  RH  091%=      5-min Rain = 0
KFR1 090810Z 20009KT 05/03 A3023 RMK A01 T00460032  RH  090%=      5-min Rain = 0
KFR1 090811Z 21009KT 05/03 A3023 RMK A01 T00460032  RH  090%=      5-min Rain = 0
KFR1 090812Z 21008KT 05/03 A3023 RMK A01 T00460032  RH  090%=      5-min Rain = 0
KFR1 090813Z 21008KT 05/03 A3023 RMK A01 T00470032  RH  090%=      5-min Rain = 0
KFR1 090814Z 21008KT 05/03 A3023 RMK A01 T00460032  RH  090%=      5-min Rain = 0
KFR1 090815Z 21009KT 05/03 A3023 RMK A01 T00470032  RH  090%=      5-min Rain = 0
KFR1 090816Z 21008KT 05/03 A3023 RMK A01 T00470032  RH  090%=      5-min Rain = 0
KFR1 090817Z 21008KT 05/03 A3023 RMK A01 T00470032  RH  090%=      5-min Rain = 0
KFR1 090818Z 21008KT 05/03 A3023 RMK A01 T00470032  RH  090%=      5-min Rain = 0
KFR1 090819Z 21008KT 05/03 A3023 RMK A01 T00480032  RH  090%=      5-min Rain = 0
KFR1 090820Z 22007KT 05/03 A3023 RMK A01 T00480032  RH  090%=      5-min Rain = 0
KFR1 090821Z 22008KT 05/03 A3023 RMK A01 T00480032  RH  089%=      5-min Rain = 0
KFR1 090822Z 22008KT 05/03 A3023 RMK A01 T00490033  RH  089%=      5-min Rain = 0
KFR1 090823Z 21008KT 05/03 A3023 RMK A01 T00490033  RH  089%=      5-min Rain = 0
KFR1 090824Z 22007KT 05/03 A3023 RMK A01 T00490032  RH  089%=      5-min Rain = 0
KFR1 090825Z 22008KT 05/03 A3023 RMK A01 T00490032  RH  089%=      5-min Rain = 0
KFR1 090826Z 22008KT 05/03 A3023 RMK A01 T00490033  RH  089%=      5-min Rain = 0
KFR1 090827Z 21009KT 05/03 A3023 RMK A01 T00500032  RH  089%=      5-min Rain = 0
KFR1 090828Z 21009KT 05/03 A3023 RMK A01 T00510033  RH  088%=      5-min Rain = 0
KFR1 090829Z 21009KT 05/03 A3023 RMK A01 T00500032  RH  088%=      5-min Rain = 0
KFR1 090830Z 22008KT 05/03 A3023 RMK A01 T00500032  RH  088%=      5-min Rain = 0
KFR1 090831Z 21008KT 05/03 A3023 RMK A01 T00490031  RH  088%=      5-min Rain = 0
KFR1 090832Z 21008KT 05/03 A3023 RMK A01 T00480031  RH  089%=      5-min Rain = 0
KFR1 090833Z 22008KT 05/03 A3023 RMK A01 T00480031  RH  089%=      5-min Rain = 0
KFR1 090834Z 21007KT 05/03 A3023 RMK A01 T00470031  RH  089%=      5-min Rain = 0
KFR1 090835Z 21007KT 05/03 A3023 RMK A01 T00470030  RH  089%=      5-min Rain = 0
KFR1 090836Z 21007KT 05/03 A3023 RMK A01 T00460030  RH  089%=      5-min Rain = 0
KFR1 090837Z 21008KT 05/03 A3023 RMK A01 T00450030  RH  089%=      5-min Rain = 0
KFR1 090838Z 21007KT 05/03 A3023 RMK A01 T00460030  RH  090%=      5-min Rain = 0
KFR1 090839Z 21007KT 05/03 A3023 RMK A01 T00460030  RH  089%=      5-min Rain = 0
KFR1 090840Z 21007KT 05/03 A3023 RMK A01 T00460030  RH  089%=      5-min Rain = 0
KFR1 090841Z 21007KT 05/03 A3023 RMK A01 T00470031  RH  089%=      5-min Rain = 0
KFR1 090842Z 21007KT 05/03 A3023 RMK A01 T00460030  RH  089%=      5-min Rain = 0
KFR1 090843Z 21007KT 05/03 A3023 RMK A01 T00460030  RH  089%=      5-min Rain = 0
KFR1 090844Z 21007KT 05/03 A3023 RMK A01 T00460030  RH  089%=      5-min Rain = 0
KFR1 090845Z 21007KT 05/03 A3023 RMK A01 T00460031  RH  089%=      5-min Rain = 0
KFR1 090846Z 21006KT 05/03 A3023 RMK A01 T00470031  RH  089%=      5-min Rain = 0
KFR1 090847Z 21007KT 05/03 A3023 RMK A01 T00470031  RH  089%=      5-min Rain = 0
KFR1 090848Z 21006KT 05/03 A3023 RMK A01 T00480031  RH  089%=      5-min Rain = 0
KFR1 090849Z 21007KT 05/03 A3023 RMK A01 T00490031  RH  089%=      5-min Rain = 0
KFR1 090850Z 22006KT 05/03 A3023 RMK A01 T00500032  RH  088%=      5-min Rain = 0
KFR1 090851Z 21005KT 05/03 A3023 RMK A01 T00500032  RH  088%=      5-min Rain = 0
KFR1 090852Z 21005KT 05/03 A3023 RMK A01 T00500031  RH  088%=      5-min Rain = 0
KFR1 090853Z 21005KT 05/03 A3023 RMK A01 T00500031  RH  087%=      5-min Rain = 0
KFR1 090854Z 22005KT 05/03 A3023 RMK A01 T00490030  RH  087%=      5-min Rain = 0
KFR1 090855Z 21005KT 05/03 A3023 RMK A01 T00490031  RH  088%=      5-min Rain = 0
KFR1 090856Z 21005KT 05/03 A3023 RMK A01 T00490031  RH  088%=      5-min Rain = 0
KFR1 090857Z 22005KT 05/03 A3023 RMK A01 T00490030  RH  088%=      5-min Rain = 0
KFR1 090858Z 22006KT 05/03 A3023 RMK A01 T00490030  RH  088%=      5-min Rain = 0
KFR1 090859Z 21006KT 05/03 A3023 RMK A01 T00480030  RH  088%=      5-min Rain = 0
KFR1 090900Z 21007KT 05/03 A3022 RMK A01 T00480030  RH  088%=      5-min Rain = 0
KFR1 090901Z 22006KT 05/03 A3022 RMK A01 T00490030  RH  088%=      5-min Rain = 0
KFR1 090902Z 22006KT 05/03 A3022 RMK A01 T00490030  RH  088%=      5-min Rain = 0
KFR1 090903Z 22006KT 05/03 A3022 RMK A01 T00490030  RH  088%=      5-min Rain = 0
KFR1 090904Z 22006KT 05/03 A3022 RMK A01 T00490030  RH  087%=      5-min Rain = 0
KFR1 090905Z 22006KT 05/03 A3022 RMK A01 T00480029  RH  087%=      5-min Rain = 0
KFR1 090906Z 20006KT 05/03 A3022 RMK A01 T00460027  RH  087%=      5-min Rain = 0
KFR1 090907Z 20007KT 04/03 A3022 RMK A01 T00440025  RH  088%=      5-min Rain = 0
KFR1 090908Z 20008KT 04/03 A3022 RMK A01 T00420025  RH  088%=      5-min Rain = 0
KFR1 090909Z 20008KT 04/02 A3022 RMK A01 T00400024  RH  089%=      5-min Rain = 0
KFR1 090910Z 20007KT 04/02 A3022 RMK A01 T00400024  RH  090%=      5-min Rain = 0
KFR1 090911Z 21008KT 04/03 A3022 RMK A01 T00400025  RH  090%=      5-min Rain = 0
KFR1 090912Z 20007KT 04/03 A3022 RMK A01 T00400025  RH  090%=      5-min Rain = 0
KFR1 090913Z 20007KT 04/03 A3022 RMK A01 T00400025  RH  090%=      5-min Rain = 0
KFR1 090914Z 21007KT 04/03 A3022 RMK A01 T00400025  RH  090%=      5-min Rain = 0
KFR1 090915Z 20006KT 04/03 A3022 RMK A01 T00390025  RH  090%=      5-min Rain = 0
KFR1 090916Z 21006KT 04/03 A3022 RMK A01 T00400025  RH  090%=      5-min Rain = 0
KFR1 090917Z 21006KT 04/03 A3022 RMK A01 T00400025  RH  090%=      5-min Rain = 0
KFR1 090918Z 21007KT 04/03 A3022 RMK A01 T00400026  RH  090%=      5-min Rain = 0
KFR1 090919Z 22006KT 04/03 A3022 RMK A01 T00400026  RH  090%=      5-min Rain = 0
KFR1 090920Z 21006KT 04/03 A3022 RMK A01 T00400026  RH  090%=      5-min Rain = 0
KFR1 090921Z 21007KT 04/03 A3022 RMK A01 T00410026  RH  090%=      5-min Rain = 0
KFR1 090922Z 21007KT 04/03 A3022 RMK A01 T00410027  RH  090%=      5-min Rain = 0
KFR1 090923Z 21006KT 04/03 A3022 RMK A01 T00420026  RH  090%=      5-min Rain = 0
KFR1 090924Z 22006KT 04/03 A3022 RMK A01 T00420026  RH  089%=      5-min Rain = 0
KFR1 090925Z 21006KT 04/03 A3022 RMK A01 T00410025  RH  089%=      5-min Rain = 0
KFR1 090926Z 22006KT 04/03 A3022 RMK A01 T00410026  RH  090%=      5-min Rain = 0
KFR1 090927Z 21007KT 04/03 A3022 RMK A01 T00410026  RH  090%=      5-min Rain = 0
KFR1 090928Z 20007KT 04/03 A3022 RMK A01 T00410025  RH  090%=      5-min Rain = 0
KFR1 090929Z 21007KT 04/03 A3022 RMK A01 T00410025  RH  090%=      5-min Rain = 0
KFR1 090930Z 20008KT 04/02 A3022 RMK A01 T00400024  RH  090%=      5-min Rain = 0
KFR1 090931Z 21006KT 04/02 A3022 RMK A01 T00390024  RH  090%=      5-min Rain = 0
KFR1 090932Z 21007KT 04/02 A3022 RMK A01 T00390024  RH  090%=      5-min Rain = 0
KFR1 090933Z 21007KT 04/02 A3022 RMK A01 T00390024  RH  090%=      5-min Rain = 0
KFR1 090934Z 21007KT 04/02 A3022 RMK A01 T00390024  RH  091%=      5-min Rain = 0
KFR1 090935Z 22007KT 04/03 A3022 RMK A01 T00390025  RH  091%=      5-min Rain = 0
KFR1 090936Z 22006KT 04/03 A3022 RMK A01 T00400026  RH  090%=      5-min Rain = 0
KFR1 090937Z 22006KT 04/03 A3022 RMK A01 T00410027  RH  090%=      5-min Rain = 0
KFR1 090938Z 22006KT 04/03 A3022 RMK A01 T00420028  RH  090%=      5-min Rain = 0
KFR1 090939Z 22006KT 04/03 A3022 RMK A01 T00430028  RH  090%=      5-min Rain = 0
KFR1 090940Z 22005KT 04/03 A3022 RMK A01 T00430027  RH  089%=      5-min Rain = 0
KFR1 090941Z 21006KT 04/03 A3022 RMK A01 T00430027  RH  089%=      5-min Rain = 0
KFR1 090942Z 21006KT 04/03 A3021 RMK A01 T00430026  RH  089%=      5-min Rain = 0
KFR1 090943Z 21005KT 04/03 A3021 RMK A01 T00420026  RH  089%=      5-min Rain = 0
KFR1 090944Z 21006KT 04/03 A3021 RMK A01 T00420025  RH  089%=      5-min Rain = 0
KFR1 090945Z 21007KT 04/03 A3021 RMK A01 T00410025  RH  089%=      5-min Rain = 0
KFR1 090946Z 21006KT 04/03 A3021 RMK A01 T00400025  RH  090%=      5-min Rain = 0
KFR1 090947Z 22006KT 04/03 A3021 RMK A01 T00400025  RH  090%=      5-min Rain = 0
KFR1 090948Z 23007KT 04/03 A3021 RMK A01 T00400025  RH  090%=      5-min Rain = 0
KFR1 090949Z 23007KT 04/03 A3022 RMK A01 T00410027  RH  091%=      5-min Rain = 0
KFR1 090950Z 23006KT 04/03 A3022 RMK A01 T00430028  RH  090%=      5-min Rain = 0
KFR1 090951Z 23006KT 04/03 A3022 RMK A01 T00430027  RH  090%=      5-min Rain = 0
KFR1 090952Z 23007KT 04/03 A3021 RMK A01 T00430027  RH  089%=      5-min Rain = 0
KFR1 090953Z 23007KT 04/03 A3021 RMK A01 T00430027  RH  089%=      5-min Rain = 0
KFR1 090954Z 23007KT 04/03 A3021 RMK A01 T00430027  RH  089%=      5-min Rain = 0
KFR1 090955Z 23007KT 04/03 A3021 RMK A01 T00430026  RH  089%=      5-min Rain = 0
KFR1 090956Z 23007KT 04/03 A3021 RMK A01 T00420026  RH  089%=      5-min Rain = 0
KFR1 090957Z 23006KT 04/03 A3021 RMK A01 T00420027  RH  089%=      5-min Rain = 0
KFR1 090958Z 22006KT 04/03 A3022 RMK A01 T00420026  RH  089%=      5-min Rain = 0
KFR1 090959Z 22005KT 04/03 A3022 RMK A01 T00410026  RH  089%=      5-min Rain = 0
KFR1 091000Z 23006KT 04/03 A3022 RMK A01 T00410026  RH  090%=      5-min Rain = 0
KFR1 091001Z 23006KT 04/03 A3022 RMK A01 T00410026  RH  090%=      5-min Rain = 0
KFR1 091002Z 23007KT 04/03 A3022 RMK A01 T00410026  RH  090%=      5-min Rain = 0
KFR1 091003Z 23006KT 04/03 A3022 RMK A01 T00410026  RH  090%=      5-min Rain = 0
KFR1 091004Z 23007KT 04/03 A3021 RMK A01 T00420026  RH  090%=      5-min Rain = 0
KFR1 091005Z 23008KT 04/03 A3021 RMK A01 T00420026  RH  090%=      5-min Rain = 0
KFR1 091006Z 23008KT 04/03 A3021 RMK A01 T00420026  RH  089%=      5-min Rain = 0
KFR1 091007Z 23008KT 04/03 A3021 RMK A01 T00420026  RH  089%=      5-min Rain = 0
KFR1 091008Z 23008KT 04/03 A3021 RMK A01 T00410026  RH  089%=      5-min Rain = 0
KFR1 091009Z 23008KT 04/03 A3021 RMK A01 T00410025  RH  090%=      5-min Rain = 0
KFR1 091010Z 23006KT 04/03 A3021 RMK A01 T00410025  RH  090%=      5-min Rain = 0
KFR1 091011Z 23006KT 04/03 A3021 RMK A01 T00410025  RH  090%=      5-min Rain = 0
KFR1 091012Z 22006KT 04/03 A3021 RMK A01 T00410025  RH  090%=      5-min Rain = 0
KFR1 091013Z 22007KT 04/03 A3021 RMK A01 T00400025  RH  090%=      5-min Rain = 0
KFR1 091014Z 21006KT 04/03 A3021 RMK A01 T00410025  RH  090%=      5-min Rain = 0
KFR1 091015Z 21007KT 04/03 A3021 RMK A01 T00410026  RH  090%=      5-min Rain = 0
KFR1 091016Z 22006KT 04/03 A3021 RMK A01 T00410025  RH  090%=      5-min Rain = 0
KFR1 091017Z 22006KT 04/03 A3021 RMK A01 T00410025  RH  089%=      5-min Rain = 0
KFR1 091018Z 22005KT 04/03 A3021 RMK A01 T00410025  RH  089%=      5-min Rain = 0
KFR1 091019Z 23005KT 04/03 A3021 RMK A01 T00410025  RH  089%=      5-min Rain = 0
KFR1 091020Z 22005KT 04/03 A3021 RMK A01 T00410025  RH  090%=      5-min Rain = 0
KFR1 091021Z 23005KT 04/03 A3021 RMK A01 T00410025  RH  090%=      5-min Rain = 0
KFR1 091022Z 23005KT 04/03 A3021 RMK A01 T00410026  RH  090%=      5-min Rain = 0
KFR1 091023Z 23005KT 04/03 A3021 RMK A01 T00410025  RH  089%=      5-min Rain = 0
KFR1 091024Z 22006KT 04/03 A3021 RMK A01 T00410025  RH  089%=      5-min Rain = 0
KFR1 091025Z 22006KT 04/03 A3021 RMK A01 T00420026  RH  090%=      5-min Rain = 0
KFR1 091026Z 22005KT 04/03 A3021 RMK A01 T00420026  RH  089%=      5-min Rain = 0
KFR1 091027Z 22006KT 04/03 A3021 RMK A01 T00420025  RH  089%=      5-min Rain = 0
KFR1 091028Z 22006KT 04/03 A3021 RMK A01 T00420026  RH  089%=      5-min Rain = 0
KFR1 091029Z 22005KT 04/03 A3021 RMK A01 T00430026  RH  089%=      5-min Rain = 0
KFR1 091030Z 22006KT 04/03 A3021 RMK A01 T00430026  RH  089%=      5-min Rain = 0
KFR1 091031Z 22006KT 04/03 A3021 RMK A01 T00420025  RH  089%=      5-min Rain = 0
KFR1 091032Z 22006KT 04/03 A3021 RMK A01 T00420025  RH  089%=      5-min Rain = 0
KFR1 091033Z 22006KT 04/03 A3021 RMK A01 T00420025  RH  089%=      5-min Rain = 0
KFR1 091034Z 22007KT 04/03 A3021 RMK A01 T00420025  RH  089%=      5-min Rain = 0
KFR1 091035Z 23007KT 04/03 A3021 RMK A01 T00420025  RH  089%=      5-min Rain = 0
KFR1 091036Z 22006KT 04/03 A3021 RMK A01 T00420025  RH  089%=      5-min Rain = 0
KFR1 091037Z 22007KT 04/03 A3021 RMK A01 T00420025  RH  089%=      5-min Rain = 0
KFR1 091038Z 22006KT 04/03 A3021 RMK A01 T00410025  RH  089%=      5-min Rain = 0
KFR1 091039Z 21007KT 04/03 A3021 RMK A01 T00410025  RH  089%=      5-min Rain = 0
KFR1 091040Z 22007KT 04/03 A3021 RMK A01 T00410025  RH  089%=      5-min Rain = 0
KFR1 091041Z 21007KT 04/03 A3021 RMK A01 T00420025  RH  089%=      5-min Rain = 0
KFR1 091042Z 21008KT 04/03 A3021 RMK A01 T00410025  RH  089%=      5-min Rain = 0
KFR1 091043Z 21008KT 04/02 A3021 RMK A01 T00410024  RH  089%=      5-min Rain = 0
KFR1 091044Z 21008KT 04/02 A3021 RMK A01 T00410024  RH  089%=      5-min Rain = 0
KFR1 091045Z 21008KT 04/02 A3021 RMK A01 T00400024  RH  089%=      5-min Rain = 0
KFR1 091046Z 21008KT 04/03 A3021 RMK A01 T00410025  RH  089%=      5-min Rain = 0
KFR1 091047Z 22009KT 04/03 A3021 RMK A01 T00410025  RH  089%=      5-min Rain = 0
KFR1 091048Z 22008KT 04/03 A3021 RMK A01 T00420026  RH  089%=      5-min Rain = 0
KFR1 091049Z 23006KT 04/03 A3021 RMK A01 T00430026  RH  089%=      5-min Rain = 0
KFR1 091050Z 22006KT 04/03 A3021 RMK A01 T00430026  RH  088%=      5-min Rain = 0
KFR1 091051Z 23007KT 04/03 A3021 RMK A01 T00430026  RH  088%=      5-min Rain = 0
KFR1 091052Z 23006KT 04/03 A3021 RMK A01 T00430026  RH  088%=      5-min Rain = 0
KFR1 091053Z 23006KT 04/03 A3021 RMK A01 T00430025  RH  088%=      5-min Rain = 0
KFR1 091054Z 23007KT 04/03 A3021 RMK A01 T00420025  RH  088%=      5-min Rain = 0
KFR1 091055Z 23006KT 04/03 A3021 RMK A01 T00420025  RH  089%=      5-min Rain = 0
KFR1 091056Z 23007KT 04/03 A3021 RMK A01 T00420025  RH  089%=      5-min Rain = 0
KFR1 091057Z 24006KT 04/03 A3021 RMK A01 T00430026  RH  089%=      5-min Rain = 0
KFR1 091058Z 23007KT 04/03 A3021 RMK A01 T00440026  RH  088%=      5-min Rain = 0
KFR1 091059Z 24006KT 05/03 A3021 RMK A01 T00450027  RH  088%=      5-min Rain = 0
KFR1 091100Z 23006KT 05/03 A3021 RMK A01 T00470027  RH  087%=      5-min Rain = 0
KFR1 091101Z 23005KT 05/03 A3021 RMK A01 T00470027  RH  087%=      5-min Rain = 0
KFR1 091102Z 22008KT 05/03 A3021 RMK A01 T00470027  RH  087%=      5-min Rain = 0
KFR1 091103Z 22007KT 05/03 A3021 RMK A01 T00470027  RH  087%=      5-min Rain = 0
KFR1 091104Z 23008KT 05/03 A3021 RMK A01 T00480027  RH  086%=      5-min Rain = 0
KFR1 091105Z 22007KT 05/03 A3021 RMK A01 T00480026  RH  086%=      5-min Rain = 0
KFR1 091106Z 23006KT 05/03 A3021 RMK A01 T00470025  RH  086%=      5-min Rain = 0
KFR1 091107Z 23006KT 05/03 A3021 RMK A01 T00460025  RH  087%=      5-min Rain = 0
KFR1 091108Z 22006KT 05/03 A3021 RMK A01 T00450025  RH  087%=      5-min Rain = 0
KFR1 091109Z 22006KT 04/02 A3021 RMK A01 T00440024  RH  087%=      5-min Rain = 0
KFR1 091110Z 22006KT 04/03 A3021 RMK A01 T00440025  RH  087%=      5-min Rain = 0
KFR1 091111Z 23005KT 04/03 A3021 RMK A01 T00440025  RH  088%=      5-min Rain = 0
KFR1 091112Z 23005KT 04/02 A3021 RMK A01 T00430024  RH  088%=      5-min Rain = 0
KFR1 091113Z 23005KT 04/03 A3021 RMK A01 T00430025  RH  088%=      5-min Rain = 0
KFR1 091114Z 22005KT 04/02 A3021 RMK A01 T00430024  RH  088%=      5-min Rain = 0
KFR1 091115Z 21007KT 04/02 A3021 RMK A01 T00420024  RH  088%=      5-min Rain = 0
KFR1 091116Z 21006KT 04/02 A3021 RMK A01 T00430024  RH  088%=      5-min Rain = 0
KFR1 091117Z 21006KT 04/02 A3021 RMK A01 T00430024  RH  088%=      5-min Rain = 0
KFR1 091118Z 21006KT 04/02 A3021 RMK A01 T00430023  RH  087%=      5-min Rain = 0
KFR1 091119Z 21006KT 04/02 A3021 RMK A01 T00420023  RH  088%=      5-min Rain = 0
KFR1 091120Z 21007KT 04/02 A3021 RMK A01 T00410022  RH  088%=      5-min Rain = 0
KFR1 091121Z 21006KT 04/02 A3021 RMK A01 T00410023  RH  088%=      5-min Rain = 0
KFR1 091122Z 22006KT 04/02 A3021 RMK A01 T00400022  RH  088%=      5-min Rain = 0
KFR1 091123Z 23005KT 04/02 A3021 RMK A01 T00400023  RH  088%=      5-min Rain = 0
KFR1 091124Z 23005KT 04/02 A3021 RMK A01 T00400023  RH  088%=      5-min Rain = 0
KFR1 091125Z 22005KT 04/02 A3021 RMK A01 T00400022  RH  088%=      5-min Rain = 0
KFR1 091126Z 23005KT 04/02 A3021 RMK A01 T00390022  RH  088%=      5-min Rain = 0
KFR1 091127Z 23005KT 04/02 A3021 RMK A01 T00390022  RH  089%=      5-min Rain = 0
KFR1 091128Z 23005KT 04/02 A3021 RMK A01 T00390022  RH  089%=      5-min Rain = 0
KFR1 091129Z 22004KT 04/02 A3021 RMK A01 T00380021  RH  089%=      5-min Rain = 0
KFR1 091130Z 22005KT 04/02 A3021 RMK A01 T00390022  RH  089%=      5-min Rain = 0
KFR1 091131Z 22005KT 04/02 A3021 RMK A01 T00390021  RH  088%=      5-min Rain = 0
KFR1 091132Z 22005KT 04/02 A3021 RMK A01 T00390021  RH  089%=      5-min Rain = 0
KFR1 091133Z 22007KT 04/02 A3021 RMK A01 T00390021  RH  089%=      5-min Rain = 0
KFR1 091134Z 21006KT 04/02 A3021 RMK A01 T00400023  RH  089%=      5-min Rain = 0
KFR1 091135Z 21007KT 04/02 A3021 RMK A01 T00420024  RH  088%=      5-min Rain = 0
KFR1 091136Z 21006KT 04/02 A3021 RMK A01 T00410022  RH  087%=      5-min Rain = 0
KFR1 091137Z 21007KT 04/02 A3021 RMK A01 T00410022  RH  087%=      5-min Rain = 0
KFR1 091138Z 22005KT 04/02 A3021 RMK A01 T00410022  RH  088%=      5-min Rain = 0
KFR1 091139Z 21005KT 04/02 A3021 RMK A01 T00400021  RH  088%=      5-min Rain = 0
KFR1 091140Z 21006KT 04/02 A3021 RMK A01 T00390021  RH  088%=      5-min Rain = 0
KFR1 091141Z 22006KT 04/02 A3021 RMK A01 T00380020  RH  088%=      5-min Rain = 0
KFR1 091142Z 21006KT 04/02 A3021 RMK A01 T00380021  RH  088%=      5-min Rain = 0
KFR1 091143Z 21007KT 04/02 A3021 RMK A01 T00380020  RH  088%=      5-min Rain = 0
KFR1 091144Z 21007KT 04/02 A3021 RMK A01 T00370020  RH  089%=      5-min Rain = 0
KFR1 091145Z 21007KT 04/02 A3021 RMK A01 T00370020  RH  089%=      5-min Rain = 0
KFR1 091146Z 21007KT 04/02 A3021 RMK A01 T00370020  RH  089%=      5-min Rain = 0
KFR1 091147Z 21007KT 04/02 A3021 RMK A01 T00360020  RH  089%=      5-min Rain = 0
KFR1 091148Z 20008KT 04/02 A3021 RMK A01 T00350019  RH  089%=      5-min Rain = 0
KFR1 091149Z 20008KT 04/02 A3021 RMK A01 T00350019  RH  089%=      5-min Rain = 0
KFR1 091150Z 20008KT 03/02 A3021 RMK A01 T00340018  RH  090%=      5-min Rain = 0
KFR1 091151Z 20009KT 03/02 A3021 RMK A01 T00330018  RH  090%=      5-min Rain = 0
KFR1 091152Z 20009KT 03/02 A3021 RMK A01 T00330018  RH  090%=      5-min Rain = 0
KFR1 091153Z 21008KT 03/02 A3021 RMK A01 T00320018  RH  091%=      5-min Rain = 0
KFR1 091154Z 20008KT 03/02 A3021 RMK A01 T00330019  RH  091%=      5-min Rain = 0
KFR1 091155Z 20009KT 03/02 A3021 RMK A01 T00320018  RH  091%=      5-min Rain = 0
KFR1 091156Z 20009KT 03/02 A3021 RMK A01 T00320018  RH  091%=      5-min Rain = 0
KFR1 091157Z 20010KT 03/02 A3021 RMK A01 T00320018  RH  091%=      5-min Rain = 0
KFR1 091158Z 20009KT 03/02 A3021 RMK A01 T00320018  RH  091%=      5-min Rain = 0
KFR1 091159Z 19010KT 03/02 A3021 RMK A01 T00320018  RH  091%=      5-min Rain = 0
KFR1 091200Z 20010KT 03/02 A3021 RMK A01 T00320018  RH  091%=      5-min Rain = 0
KFR1 091201Z 19010KT 03/02 A3021 RMK A01 T00320018  RH  091%=      5-min Rain = 0
KFR1 091202Z 20009KT 03/02 A3021 RMK A01 T00320018  RH  091%=      5-min Rain = 0
KFR1 091203Z 19008KT 03/02 A3021 RMK A01 T00310017  RH  091%=      5-min Rain = 0
KFR1 091204Z 20006KT 03/02 A3021 RMK A01 T00310017  RH  091%=      5-min Rain = 0
KFR1 091205Z 20007KT 03/02 A3021 RMK A01 T00300016  RH  091%=      5-min Rain = 0
KFR1 091206Z 20005KT 03/02 A3021 RMK A01 T00290016  RH  091%=      5-min Rain = 0
KFR1 091207Z 20005KT 03/02 A3021 RMK A01 T00290016  RH  091%=      5-min Rain = 0
KFR1 091208Z 20006KT 03/02 A3021 RMK A01 T00280016  RH  091%=      5-min Rain = 0
KFR1 091209Z 20006KT 03/02 A3021 RMK A01 T00280015  RH  091%=      5-min Rain = 0
KFR1 091210Z 20005KT 03/02 A3021 RMK A01 T00270015  RH  092%=      5-min Rain = 0
KFR1 091211Z 20006KT 03/02 A3021 RMK A01 T00270015  RH  092%=      5-min Rain = 0
KFR1 091212Z 20006KT 03/01 A3021 RMK A01 T00270014  RH  092%=      5-min Rain = 0
KFR1 091213Z 20008KT 03/01 A3021 RMK A01 T00260014  RH  092%=      5-min Rain = 0
KFR1 091214Z 20006KT 03/02 A3021 RMK A01 T00260015  RH  092%=      5-min Rain = 0
KFR1 091215Z 20007KT 03/02 A3021 RMK A01 T00270015  RH  092%=      5-min Rain = 0
KFR1 091216Z 21005KT 03/02 A3021 RMK A01 T00270015  RH  092%=      5-min Rain = 0
KFR1 091217Z 20007KT 03/02 A3021 RMK A01 T00270015  RH  092%=      5-min Rain = 0
KFR1 091218Z 20006KT 03/02 A3021 RMK A01 T00270015  RH  092%=      5-min Rain = 0
KFR1 091219Z 20006KT 03/02 A3021 RMK A01 T00270015  RH  092%=      5-min Rain = 0
KFR1 091220Z 20005KT 03/01 A3021 RMK A01 T00260014  RH  092%=      5-min Rain = 0
KFR1 091221Z 21005KT 03/01 A3021 RMK A01 T00260014  RH  092%=      5-min Rain = 0
KFR1 091222Z 21005KT 03/01 A3021 RMK A01 T00260014  RH  092%=      5-min Rain = 0
KFR1 091223Z 21005KT 03/02 A3021 RMK A01 T00260015  RH  092%=      5-min Rain = 0
KFR1 091224Z 20004KT 03/02 A3021 RMK A01 T00270015  RH  092%=      5-min Rain = 0
KFR1 091225Z 19005KT 03/02 A3022 RMK A01 T00270015  RH  092%=      5-min Rain = 0
KFR1 091226Z 19007KT 03/01 A3022 RMK A01 T00270014  RH  092%=      5-min Rain = 0
KFR1 091227Z 21004KT 03/01 A3022 RMK A01 T00260014  RH  092%=      5-min Rain = 0
KFR1 091228Z 23003KT 03/01 A3022 RMK A01 T00260014  RH  092%=      5-min Rain = 0
KFR1 091229Z 20005KT 03/02 A3022 RMK A01 T00270015  RH  092%=      5-min Rain = 0
KFR1 091230Z 22004KT 03/02 A3022 RMK A01 T00270015  RH  092%=      5-min Rain = 0
KFR1 091231Z 21005KT 03/02 A3022 RMK A01 T00280015  RH  092%=      5-min Rain = 0
KFR1 091232Z 22004KT 03/02 A3022 RMK A01 T00290016  RH  091%=      5-min Rain = 0
KFR1 091233Z 22005KT 03/02 A3022 RMK A01 T00300016  RH  091%=      5-min Rain = 0
KFR1 091234Z 22006KT 03/02 A3022 RMK A01 T00300016  RH  090%=      5-min Rain = 0
KFR1 091235Z 22005KT 03/02 A3022 RMK A01 T00300016  RH  090%=      5-min Rain = 0
KFR1 091236Z 21006KT 03/02 A3022 RMK A01 T00300015  RH  090%=      5-min Rain = 0
KFR1 091237Z 22005KT 03/01 A3022 RMK A01 T00300014  RH  090%=      5-min Rain = 0
KFR1 091238Z 20005KT 03/01 A3022 RMK A01 T00290014  RH  090%=      5-min Rain = 0
KFR1 091239Z 20006KT 03/01 A3022 RMK A01 T00280013  RH  090%=      5-min Rain = 0
KFR1 091240Z 20007KT 03/01 A3022 RMK A01 T00270013  RH  091%=      5-min Rain = 0
KFR1 091241Z 19007KT 03/01 A3022 RMK A01 T00270013  RH  091%=      5-min Rain = 0
KFR1 091242Z 20007KT 03/01 A3022 RMK A01 T00270013  RH  091%=      5-min Rain = 0
KFR1 091243Z 20006KT 03/01 A3022 RMK A01 T00270013  RH  091%=      5-min Rain = 0
KFR1 091244Z 20005KT 03/01 A3022 RMK A01 T00260013  RH  091%=      5-min Rain = 0
KFR1 091245Z 20006KT 03/01 A3022 RMK A01 T00260013  RH  091%=      5-min Rain = 0
KFR1 091246Z 20006KT 03/01 A3022 RMK A01 T00250012  RH  091%=      5-min Rain = 0
KFR1 091247Z 20008KT 03/01 A3022 RMK A01 T00260013  RH  091%=      5-min Rain = 0
KFR1 091248Z 20007KT 03/01 A3021 RMK A01 T00250013  RH  091%=      5-min Rain = 0
KFR1 091249Z 20008KT 03/01 A3021 RMK A01 T00250013  RH  091%=      5-min Rain = 0
KFR1 091250Z 19008KT 03/01 A3021 RMK A01 T00250013  RH  091%=      5-min Rain = 0
KFR1 091251Z 20009KT 03/01 A3021 RMK A01 T00250013  RH  091%=      5-min Rain = 0
KFR1 091252Z 20009KT 03/01 A3021 RMK A01 T00260013  RH  091%=      5-min Rain = 0
KFR1 091253Z 20009KT 03/01 A3021 RMK A01 T00260013  RH  091%=      5-min Rain = 0
KFR1 091254Z 20009KT 03/01 A3022 RMK A01 T00260013  RH  091%=      5-min Rain = 0
KFR1 091255Z 21007KT 03/01 A3022 RMK A01 T00270013  RH  091%=      5-min Rain = 0
KFR1 091256Z 20006KT 03/01 A3022 RMK A01 T00270013  RH  090%=      5-min Rain = 0
KFR1 091257Z 21005KT 03/01 A3022 RMK A01 T00270013  RH  091%=      5-min Rain = 0
KFR1 091258Z 22005KT 03/01 A3022 RMK A01 T00270013  RH  090%=      5-min Rain = 0
KFR1 091259Z 21005KT 03/01 A3022 RMK A01 T00270013  RH  090%=      5-min Rain = 0
KFR1 091300Z 21005KT 03/01 A3022 RMK A01 T00270013  RH  090%=      5-min Rain = 0
KFR1 091301Z 21006KT 03/01 A3022 RMK A01 T00270013  RH  090%=      5-min Rain = 0
KFR1 091302Z 21005KT 03/01 A3022 RMK A01 T00270013  RH  090%=      5-min Rain = 0
KFR1 091303Z 21004KT 03/01 A3022 RMK A01 T00270013  RH  090%=      5-min Rain = 0
KFR1 091304Z 22005KT 03/01 A3022 RMK A01 T00270012  RH  090%=      5-min Rain = 0
KFR1 091305Z 21003KT 03/01 A3022 RMK A01 T00270013  RH  090%=      5-min Rain = 0
KFR1 091306Z 20005KT 03/01 A3022 RMK A01 T00270012  RH  090%=      5-min Rain = 0
KFR1 091307Z 20005KT 03/01 A3022 RMK A01 T00250011  RH  090%=      5-min Rain = 0
KFR1 091308Z 19006KT 02/01 A3022 RMK A01 T00240010  RH  090%=      5-min Rain = 0
KFR1 091309Z 20007KT 02/01 A3021 RMK A01 T00230010  RH  091%=      5-min Rain = 0
KFR1 091310Z 20007KT 02/01 A3021 RMK A01 T00230010  RH  091%=      5-min Rain = 0
KFR1 091311Z 19008KT 02/01 A3021 RMK A01 T00230011  RH  091%=      5-min Rain = 0
KFR1 091312Z 19009KT 02/01 A3021 RMK A01 T00230011  RH  092%=      5-min Rain = 0
KFR1 091313Z 19010KT 02/01 A3021 RMK A01 T00230011  RH  092%=      5-min Rain = 0
KFR1 091314Z 19010KT 02/01 A3021 RMK A01 T00240012  RH  092%=      5-min Rain = 0
KFR1 091315Z 20010KT 03/01 A3021 RMK A01 T00250012  RH  092%=      5-min Rain = 0
KFR1 091316Z 19009KT 03/01 A3021 RMK A01 T00250012  RH  091%=      5-min Rain = 0
KFR1 091317Z 20006KT 03/01 A3021 RMK A01 T00250012  RH  091%=      5-min Rain = 0
KFR1 091318Z 20006KT 03/01 A3021 RMK A01 T00250011  RH  091%=      5-min Rain = 0
KFR1 091319Z 20007KT 02/01 A3021 RMK A01 T00240011  RH  091%=      5-min Rain = 0
KFR1 091320Z 20007KT 02/01 A3021 RMK A01 T00240011  RH  091%=      5-min Rain = 0
KFR1 091321Z 21006KT 02/01 A3022 RMK A01 T00240011  RH  091%=      5-min Rain = 0
KFR1 091322Z 20006KT 02/01 A3021 RMK A01 T00240011  RH  091%=      5-min Rain = 0
KFR1 091323Z 20007KT 02/01 A3021 RMK A01 T00240011  RH  091%=      5-min Rain = 0
KFR1 091324Z 20006KT 02/01 A3021 RMK A01 T00240011  RH  091%=      5-min Rain = 0
KFR1 091325Z 20006KT 02/01 A3021 RMK A01 T00240011  RH  091%=      5-min Rain = 0
KFR1 091326Z 21004KT 02/01 A3021 RMK A01 T00240011  RH  091%=      5-min Rain = 0
KFR1 091327Z 20005KT 02/01 A3022 RMK A01 T00240011  RH  091%=      5-min Rain = 0
KFR1 091328Z 21004KT 02/01 A3022 RMK A01 T00240011  RH  091%=      5-min Rain = 0
KFR1 091329Z 21003KT 02/01 A3022 RMK A01 T00240011  RH  091%=      5-min Rain = 0
KFR1 091330Z 21003KT 02/01 A3022 RMK A01 T00240011  RH  091%=      5-min Rain = 0
KFR1 091331Z 22002KT 03/01 A3022 RMK A01 T00250011  RH  091%=      5-min Rain = 0
KFR1 091332Z 21003KT 03/01 A3022 RMK A01 T00250011  RH  091%=      5-min Rain = 0
KFR1 091333Z 22004KT 03/01 A3022 RMK A01 T00250011  RH  091%=      5-min Rain = 0
KFR1 091334Z 22004KT 03/01 A3022 RMK A01 T00260012  RH  090%=      5-min Rain = 0
KFR1 091335Z 21005KT 03/01 A3021 RMK A01 T00260011  RH  090%=      5-min Rain = 0
KFR1 091336Z 21005KT 03/01 A3021 RMK A01 T00260011  RH  090%=      5-min Rain = 0
KFR1 091337Z 21005KT 03/01 A3021 RMK A01 T00260011  RH  090%=      5-min Rain = 0
KFR1 091338Z 22007KT 03/01 A3021 RMK A01 T00270012  RH  090%=      5-min Rain = 0
KFR1 091339Z 20006KT 03/01 A3021 RMK A01 T00270012  RH  090%=      5-min Rain = 0
KFR1 091340Z 21005KT 03/01 A3021 RMK A01 T00280012  RH  090%=      5-min Rain = 0
KFR1 091341Z 22006KT 03/01 A3021 RMK A01 T00280013  RH  090%=      5-min Rain = 0
KFR1 091342Z 22005KT 03/01 A3021 RMK A01 T00280013  RH  089%=      5-min Rain = 0
KFR1 091343Z 22005KT 03/01 A3021 RMK A01 T00290013  RH  089%=      5-min Rain = 0
KFR1 091344Z 23004KT 03/01 A3022 RMK A01 T00290013  RH  089%=      5-min Rain = 0
KFR1 091345Z 23004KT 03/01 A3022 RMK A01 T00300013  RH  089%=      5-min Rain = 0
KFR1 091346Z 22005KT 03/01 A3022 RMK A01 T00300013  RH  089%=      5-min Rain = 0
KFR1 091347Z 21005KT 03/01 A3022 RMK A01 T00300013  RH  089%=      5-min Rain = 0
KFR1 091348Z 23005KT 03/01 A3022 RMK A01 T00300013  RH  089%=      5-min Rain = 0
KFR1 091349Z 23006KT 03/01 A3022 RMK A01 T00310013  RH  088%=      5-min Rain = 0
KFR1 091350Z 22005KT 03/01 A3022 RMK A01 T00320014  RH  088%=      5-min Rain = 0
KFR1 091351Z 22005KT 03/01 A3022 RMK A01 T00320014  RH  088%=      5-min Rain = 0
KFR1 091352Z 23005KT 03/01 A3022 RMK A01 T00320014  RH  088%=      5-min Rain = 0
KFR1 091353Z 23005KT 03/01 A3022 RMK A01 T00320014  RH  088%=      5-min Rain = 0
KFR1 091354Z 23005KT 03/01 A3022 RMK A01 T00330014  RH  088%=      5-min Rain = 0
KFR1 091355Z 23006KT 03/01 A3022 RMK A01 T00330014  RH  087%=      5-min Rain = 0
KFR1 091356Z 23005KT 03/01 A3022 RMK A01 T00330014  RH  087%=      5-min Rain = 0
KFR1 091357Z 22006KT 03/01 A3022 RMK A01 T00330014  RH  087%=      5-min Rain = 0
KFR1 091358Z 23005KT 03/01 A3022 RMK A01 T00330014  RH  087%=      5-min Rain = 0
KFR1 091359Z 23005KT 03/01 A3022 RMK A01 T00330014  RH  087%=      5-min Rain = 0
KFR1 091400Z 23005KT 03/01 A3022 RMK A01 T00330014  RH  087%=      5-min Rain = 0
KFR1 091401Z 23005KT 03/02 A3022 RMK A01 T00340015  RH  087%=      5-min Rain = 0
KFR1 091402Z 22005KT 03/02 A3022 RMK A01 T00340015  RH  087%=      5-min Rain = 0
KFR1 091403Z 23006KT 03/02 A3022 RMK A01 T00340015  RH  087%=      5-min Rain = 0
KFR1 091404Z 23006KT 03/02 A3022 RMK A01 T00340015  RH  087%=      5-min Rain = 0
KFR1 091405Z 22006KT 03/02 A3022 RMK A01 T00340015  RH  087%=      5-min Rain = 0
KFR1 091406Z 22006KT 04/02 A3022 RMK A01 T00350015  RH  087%=      5-min Rain = 0
KFR1 091407Z 22007KT 04/02 A3022 RMK A01 T00350016  RH  087%=      5-min Rain = 0
KFR1 091408Z 22007KT 04/02 A3022 RMK A01 T00350016  RH  087%=      5-min Rain = 0
KFR1 091409Z 22007KT 04/02 A3022 RMK A01 T00350016  RH  087%=      5-min Rain = 0
KFR1 091410Z 23006KT 04/02 A3022 RMK A01 T00360016  RH  087%=      5-min Rain = 0
KFR1 091411Z 23006KT 04/02 A3022 RMK A01 T00360016  RH  087%=      5-min Rain = 0
KFR1 091412Z 22006KT 04/02 A3022 RMK A01 T00360016  RH  087%=      5-min Rain = 0
KFR1 091413Z 22006KT 04/02 A3022 RMK A01 T00360016  RH  087%=      5-min Rain = 0
KFR1 091414Z 21006KT 04/02 A3022 RMK A01 T00370016  RH  087%=      5-min Rain = 0
KFR1 091415Z 22005KT 04/02 A3022 RMK A01 T00370018  RH  087%=      5-min Rain = 0
KFR1 091416Z 21005KT 04/02 A3022 RMK A01 T00380018  RH  087%=      5-min Rain = 0
KFR1 091417Z 20005KT 04/02 A3022 RMK A01 T00390019  RH  087%=      5-min Rain = 0
KFR1 091418Z 21005KT 04/02 A3022 RMK A01 T00400019  RH  086%=      5-min Rain = 0
KFR1 091419Z 21007KT 04/02 A3022 RMK A01 T00400019  RH  086%=      5-min Rain = 0
KFR1 091420Z 21006KT 04/02 A3022 RMK A01 T00410019  RH  086%=      5-min Rain = 0
KFR1 091421Z 21006KT 04/02 A3022 RMK A01 T00410019  RH  086%=      5-min Rain = 0
KFR1 091422Z 21007KT 04/02 A3022 RMK A01 T00420019  RH  085%=      5-min Rain = 0
KFR1 091423Z 21007KT 04/02 A3022 RMK A01 T00420019  RH  085%=      5-min Rain = 0
KFR1 091424Z 21007KT 04/02 A3022 RMK A01 T00420019  RH  085%=      5-min Rain = 0
KFR1 091425Z 22005KT 04/02 A3022 RMK A01 T00430019  RH  085%=      5-min Rain = 0
KFR1 091426Z 22006KT 04/02 A3022 RMK A01 T00430020  RH  085%=      5-min Rain = 0
KFR1 091427Z 22006KT 04/02 A3023 RMK A01 T00440019  RH  084%=      5-min Rain = 0
KFR1 091428Z 22006KT 04/02 A3023 RMK A01 T00440019  RH  084%=      5-min Rain = 0
KFR1 091429Z 22006KT 04/02 A3023 RMK A01 T00440019  RH  084%=      5-min Rain = 0
KFR1 091430Z 21005KT 04/02 A3023 RMK A01 T00440019  RH  084%=      5-min Rain = 0
KFR1 091431Z 21007KT 04/02 A3023 RMK A01 T00440019  RH  084%=      5-min Rain = 0
KFR1 091432Z 22006KT 05/02 A3023 RMK A01 T00450019  RH  083%=      5-min Rain = 0
KFR1 091433Z 22005KT 05/02 A3023 RMK A01 T00450019  RH  084%=      5-min Rain = 0
KFR1 091434Z 23007KT 05/02 A3023 RMK A01 T00460021  RH  084%=      5-min Rain = 0
KFR1 091435Z 22007KT 05/02 A3023 RMK A01 T00460020  RH  083%=      5-min Rain = 0
KFR1 091436Z 23007KT 05/02 A3023 RMK A01 T00460019  RH  083%=      5-min Rain = 0
KFR1 091437Z 22007KT 05/02 A3023 RMK A01 T00470020  RH  083%=      5-min Rain = 0
KFR1 091438Z 22006KT 05/02 A3023 RMK A01 T00470020  RH  083%=      5-min Rain = 0
KFR1 091439Z 22006KT 05/02 A3023 RMK A01 T00480021  RH  083%=      5-min Rain = 0
KFR1 091440Z 22007KT 05/02 A3022 RMK A01 T00490021  RH  082%=      5-min Rain = 0
KFR1 091441Z 21006KT 05/02 A3022 RMK A01 T00490021  RH  082%=      5-min Rain = 0
KFR1 091442Z 22007KT 05/02 A3023 RMK A01 T00490022  RH  082%=      5-min Rain = 0
KFR1 091443Z 22007KT 05/02 A3023 RMK A01 T00500023  RH  083%=      5-min Rain = 0
KFR1 091444Z 23006KT 05/02 A3023 RMK A01 T00510023  RH  082%=      5-min Rain = 0
KFR1 091445Z 21006KT 05/02 A3023 RMK A01 T00510024  RH  082%=      5-min Rain = 0
KFR1 091446Z 21007KT 05/03 A3023 RMK A01 T00520025  RH  082%=      5-min Rain = 0
KFR1 091447Z 21007KT 05/03 A3023 RMK A01 T00530025  RH  082%=      5-min Rain = 0
KFR1 091448Z 21006KT 05/03 A3023 RMK A01 T00540025  RH  082%=      5-min Rain = 0
KFR1 091449Z 22007KT 05/03 A3023 RMK A01 T00540025  RH  082%=      5-min Rain = 0
KFR1 091450Z 22008KT 05/03 A3023 RMK A01 T00540025  RH  081%=      5-min Rain = 0
KFR1 091451Z 21006KT 06/02 A3023 RMK A01 T00550024  RH  081%=      5-min Rain = 0
KFR1 091452Z 21008KT 06/03 A3023 RMK A01 T00560026  RH  081%=      5-min Rain = 0
KFR1 091453Z 22007KT 06/03 A3023 RMK A01 T00560025  RH  080%=      5-min Rain = 0
KFR1 091454Z 22007KT 06/03 A3023 RMK A01 T00560026  RH  081%=      5-min Rain = 0
KFR1 091455Z 22007KT 06/03 A3023 RMK A01 T00570025  RH  080%=      5-min Rain = 0
KFR1 091456Z 22006KT 06/03 A3023 RMK A01 T00570028  RH  081%=      5-min Rain = 0
KFR1 091457Z 22007KT 06/03 A3023 RMK A01 T00590029  RH  081%=      5-min Rain = 0
KFR1 091458Z 22007KT 06/03 A3023 RMK A01 T00590029  RH  081%=      5-min Rain = 0
KFR1 091459Z 22007KT 06/03 A3023 RMK A01 T00600029  RH  080%=      5-min Rain = 0
KFR1 091500Z 22006KT 06/03 A3023 RMK A01 T00610028  RH  079%=      5-min Rain = 0
KFR1 091501Z 22007KT 06/03 A3023 RMK A01 T00610028  RH  079%=      5-min Rain = 0
KFR1 091502Z 23006KT 06/03 A3023 RMK A01 T00610028  RH  079%=      5-min Rain = 0
KFR1 091503Z 22006KT 06/03 A3023 RMK A01 T00620028  RH  079%=      5-min Rain = 0
KFR1 091504Z 22007KT 06/03 A3023 RMK A01 T00620027  RH  078%=      5-min Rain = 0
KFR1 091505Z 23006KT 06/03 A3023 RMK A01 T00620029  RH  079%=      5-min Rain = 0
KFR1 091506Z 23007KT 06/03 A3023 RMK A01 T00640030  RH  079%=      5-min Rain = 0
KFR1 091507Z 22008KT 06/03 A3023 RMK A01 T00640029  RH  078%=      5-min Rain = 0
KFR1 091508Z 22008KT 06/03 A3023 RMK A01 T00640027  RH  077%=      5-min Rain = 0
KFR1 091509Z 23008KT 07/03 A3023 RMK A01 T00650029  RH  078%=      5-min Rain = 0
KFR1 091510Z 23007KT 07/03 A3023 RMK A01 T00650029  RH  078%=      5-min Rain = 0
KFR1 091511Z 22008KT 07/03 A3023 RMK A01 T00660029  RH  078%=      5-min Rain = 0
KFR1 091512Z 23007KT 07/03 A3023 RMK A01 T00660030  RH  078%=      5-min Rain = 0
KFR1 091513Z 22007KT 07/03 A3023 RMK A01 T00660030  RH  078%=      5-min Rain = 0
KFR1 091514Z 22007KT 07/03 A3023 RMK A01 T00670030  RH  077%=      5-min Rain = 0
KFR1 091515Z 23006KT 07/03 A3023 RMK A01 T00670029  RH  077%=      5-min Rain = 0
KFR1 091516Z 22006KT 07/03 A3023 RMK A01 T00670030  RH  077%=      5-min Rain = 0
KFR1 091517Z 22006KT 07/03 A3023 RMK A01 T00690030  RH  077%=      5-min Rain = 0
KFR1 091518Z 23006KT 07/03 A3023 RMK A01 T00690030  RH  076%=      5-min Rain = 0
KFR1 091519Z 23008KT 07/03 A3023 RMK A01 T00700029  RH  075%=      5-min Rain = 0
KFR1 091520Z 22007KT 07/03 A3023 RMK A01 T00700028  RH  075%=      5-min Rain = 0
KFR1 091521Z 22006KT 07/03 A3023 RMK A01 T00700028  RH  075%=      5-min Rain = 0
KFR1 091522Z 23005KT 07/03 A3023 RMK A01 T00710030  RH  076%=      5-min Rain = 0
KFR1 091523Z 22006KT 07/03 A3023 RMK A01 T00730033  RH  076%=      5-min Rain = 0
KFR1 091524Z 23007KT 08/03 A3023 RMK A01 T00750032  RH  074%=      5-min Rain = 0
KFR1 091525Z 22006KT 08/03 A3023 RMK A01 T00750031  RH  073%=      5-min Rain = 0
KFR1 091531Z 23007KT 08/03 A3023 RMK A01 T00790033  RH  073%=      5-min Rain = 0
KFR1 091532Z 23007KT 08/03 A3023 RMK A01 T00800032  RH  072%=      5-min Rain = 0
KFR1 091533Z 22007KT 08/03 A3023 RMK A01 T00800032  RH  072%=      5-min Rain = 0
KFR1 091534Z 21007KT 08/03 A3023 RMK A01 T00800031  RH  071%=      5-min Rain = 0
KFR1 091535Z 22007KT 08/03 A3023 RMK A01 T00800032  RH  072%=      5-min Rain = 0
KFR1 091536Z 22007KT 08/03 A3023 RMK A01 T00800033  RH  072%=      5-min Rain = 0
KFR1 091537Z 23007KT 08/03 A3023 RMK A01 T00810033  RH  072%=      5-min Rain = 0
KFR1 091538Z 23005KT 08/03 A3023 RMK A01 T00810033  RH  071%=      5-min Rain = 0
KFR1 091539Z 22006KT 08/03 A3023 RMK A01 T00820034  RH  071%=      5-min Rain = 0
KFR1 091540Z 22006KT 08/04 A3023 RMK A01 T00830036  RH  072%=      5-min Rain = 0
KFR1 091541Z 22007KT 09/04 A3023 RMK A01 T00850035  RH  071%=      5-min Rain = 0
KFR1 091542Z 23005KT 08/03 A3023 RMK A01 T00840033  RH  070%=      5-min Rain = 0
KFR1 091543Z 22007KT 08/04 A3023 RMK A01 T00840035  RH  071%=      5-min Rain = 0
KFR1 091544Z 22007KT 09/03 A3023 RMK A01 T00850034  RH  070%=      5-min Rain = 0
KFR1 091545Z 22007KT 09/03 A3023 RMK A01 T00860033  RH  070%=      5-min Rain = 0
KFR1 091546Z 22006KT 09/03 A3023 RMK A01 T00860034  RH  070%=      5-min Rain = 0
KFR1 091547Z 22005KT 09/04 A3023 RMK A01 T00860035  RH  070%=      5-min Rain = 0
KFR1 091548Z 22005KT 09/04 A3023 RMK A01 T00870036  RH  071%=      5-min Rain = 0
KFR1 091549Z 22005KT 09/04 A3023 RMK A01 T00880038  RH  070%=      5-min Rain = 0
KFR1 091550Z 22006KT 09/04 A3024 RMK A01 T00900037  RH  069%=      5-min Rain = 0
KFR1 091551Z 21006KT 09/04 A3024 RMK A01 T00900036  RH  069%=      5-min Rain = 0
KFR1 091552Z 21005KT 09/04 A3024 RMK A01 T00900036  RH  069%=      5-min Rain = 0
KFR1 091553Z 21005KT 09/04 A3023 RMK A01 T00900037  RH  069%=      5-min Rain = 0
KFR1 091554Z 21005KT 09/04 A3023 RMK A01 T00920039  RH  070%=      5-min Rain = 0
KFR1 091555Z 22005KT 09/04 A3023 RMK A01 T00940039  RH  068%=      5-min Rain = 0
KFR1 091556Z 22005KT 09/04 A3023 RMK A01 T00940037  RH  067%=      5-min Rain = 0
KFR1 091557Z 23005KT 09/04 A3023 RMK A01 T00940038  RH  068%=      5-min Rain = 0
KFR1 091558Z 23005KT 10/04 A3023 RMK A01 T00950038  RH  067%=      5-min Rain = 0
KFR1 091559Z 23005KT 10/04 A3023 RMK A01 T00960039  RH  068%=      5-min Rain = 0
KFR1 091600Z 22006KT 10/04 A3023 RMK A01 T00970038  RH  067%=      5-min Rain = 0
KFR1 091601Z 21006KT 10/04 A3023 RMK A01 T00980040  RH  067%=      5-min Rain = 0
KFR1 091602Z 21006KT 10/04 A3023 RMK A01 T00980038  RH  066%=      5-min Rain = 0
KFR1 091603Z 21007KT 10/04 A3023 RMK A01 T00980038  RH  066%=      5-min Rain = 0
KFR1 091604Z 21007KT 10/04 A3023 RMK A01 T00980036  RH  065%=      5-min Rain = 0
KFR1 091605Z 21008KT 10/04 A3023 RMK A01 T00980035  RH  065%=      5-min Rain = 0
KFR1 091606Z 22007KT 10/04 A3023 RMK A01 T00980036  RH  065%=      5-min Rain = 0
KFR1 091607Z 22006KT 10/04 A3023 RMK A01 T00990038  RH  066%=      5-min Rain = 0
KFR1 091608Z 22007KT 10/04 A3023 RMK A01 T01010039  RH  065%=      5-min Rain = 0
KFR1 091609Z 23007KT 10/04 A3023 RMK A01 T01030040  RH  065%=      5-min Rain = 0
KFR1 091610Z 22007KT 10/04 A3023 RMK A01 T01030039  RH  064%=      5-min Rain = 0
KFR1 091611Z 22007KT 10/04 A3023 RMK A01 T01030039  RH  064%=      5-min Rain = 0
KFR1 091612Z 23007KT 10/04 A3023 RMK A01 T01030040  RH  065%=      5-min Rain = 0
KFR1 091613Z 22007KT 11/04 A3023 RMK A01 T01050043  RH  066%=      5-min Rain = 0
KFR1 091614Z 21007KT 11/04 A3023 RMK A01 T01060042  RH  064%=      5-min Rain = 0
KFR1 091615Z 22007KT 11/04 A3023 RMK A01 T01060043  RH  065%=      5-min Rain = 0
KFR1 091616Z 21007KT 11/04 A3023 RMK A01 T01070040  RH  064%=      5-min Rain = 0
KFR1 091617Z 21006KT 11/04 A3023 RMK A01 T01080042  RH  064%=      5-min Rain = 0
KFR1 091618Z 22006KT 11/05 A3023 RMK A01 T01110045  RH  064%=      5-min Rain = 0
KFR1 091619Z 21008KT 11/04 A3023 RMK A01 T01110042  RH  062%=      5-min Rain = 0
KFR1 091620Z 22007KT 11/04 A3023 RMK A01 T01110042  RH  062%=      5-min Rain = 0
KFR1 091621Z 22007KT 11/04 A3023 RMK A01 T01110043  RH  063%=      5-min Rain = 0
KFR1 091622Z 22007KT 11/04 A3023 RMK A01 T01110043  RH  063%=      5-min Rain = 0
KFR1 091623Z 22007KT 11/04 A3023 RMK A01 T01120044  RH  063%=      5-min Rain = 0
KFR1 091624Z 22006KT 11/04 A3023 RMK A01 T01130043  RH  062%=      5-min Rain = 0
KFR1 091625Z 22006KT 11/04 A3023 RMK A01 T01130043  RH  062%=      5-min Rain = 0
KFR1 091626Z 21007KT 11/04 A3023 RMK A01 T01130044  RH  062%=      5-min Rain = 0
KFR1 091627Z 21007KT 11/04 A3023 RMK A01 T01140043  RH  062%=      5-min Rain = 0
KFR1 091628Z 22007KT 12/04 A3023 RMK A01 T01160044  RH  061%=      5-min Rain = 0
KFR1 091629Z 22007KT 12/04 A3023 RMK A01 T01170043  RH  061%=      5-min Rain = 0
KFR1 091630Z 22007KT 12/05 A3023 RMK A01 T01170045  RH  061%=      5-min Rain = 0
KFR1 091631Z 24005KT 12/05 A3023 RMK A01 T01190048  RH  062%=      5-min Rain = 0
KFR1 091632Z 24006KT 12/05 A3023 RMK A01 T01230048  RH  060%=      5-min Rain = 0
KFR1 091633Z 23007KT 12/05 A3023 RMK A01 T01240046  RH  059%=      5-min Rain = 0
KFR1 091634Z 23008KT 12/05 A3023 RMK A01 T01240046  RH  059%=      5-min Rain = 0
KFR1 091635Z 23007KT 12/04 A3023 RMK A01 T01230044  RH  059%=      5-min Rain = 0
KFR1 091636Z 23006KT 12/05 A3023 RMK A01 T01220045  RH  059%=      5-min Rain = 0
KFR1 091637Z 23007KT 12/05 A3022 RMK A01 T01230047  RH  059%=      5-min Rain = 0
KFR1 091638Z 23006KT 13/05 A3022 RMK A01 T01260045  RH  058%=      5-min Rain = 0
KFR1 091639Z 23007KT 13/05 A3022 RMK A01 T01250046  RH  058%=      5-min Rain = 0
KFR1 091640Z 22008KT 13/05 A3022 RMK A01 T01250045  RH  058%=      5-min Rain = 0
KFR1 091641Z 21007KT 13/05 A3022 RMK A01 T01250045  RH  058%=      5-min Rain = 0
KFR1 091642Z 22007KT 13/05 A3022 RMK A01 T01250047  RH  059%=      5-min Rain = 0
KFR1 091643Z 23006KT 13/05 A3022 RMK A01 T01260047  RH  059%=      5-min Rain = 0
KFR1 091644Z 23005KT 13/05 A3022 RMK A01 T01300051  RH  059%=      5-min Rain = 0
KFR1 091645Z 24006KT 13/05 A3022 RMK A01 T01340051  RH  057%=      5-min Rain = 0
KFR1 091646Z 23007KT 14/05 A3022 RMK A01 T01350048  RH  056%=      5-min Rain = 0
KFR1 091647Z 22008KT 13/05 A3022 RMK A01 T01340048  RH  056%=      5-min Rain = 0
KFR1 091648Z 22007KT 13/05 A3022 RMK A01 T01310049  RH  057%=      5-min Rain = 0
KFR1 091649Z 22008KT 13/05 A3022 RMK A01 T01320048  RH  057%=      5-min Rain = 0
KFR1 091650Z 22008KT 13/05 A3022 RMK A01 T01310047  RH  057%=      5-min Rain = 0
KFR1 091651Z 22006KT 13/05 A3022 RMK A01 T01310048  RH  057%=      5-min Rain = 0
KFR1 091652Z 22008KT 13/05 A3022 RMK A01 T01330051  RH  058%=      5-min Rain = 0
KFR1 091653Z 22008KT 14/05 A3022 RMK A01 T01350049  RH  056%=      5-min Rain = 0
KFR1 091654Z 23008KT 13/05 A3022 RMK A01 T01340047  RH  056%=      5-min Rain = 0
KFR1 091655Z 21007KT 13/05 A3022 RMK A01 T01340048  RH  056%=      5-min Rain = 0
KFR1 091656Z 21006KT 14/05 A3022 RMK A01 T01350048  RH  056%=      5-min Rain = 0
KFR1 091657Z 21006KT 14/05 A3022 RMK A01 T01360048  RH  055%=      5-min Rain = 0
KFR1 091658Z 21006KT 14/05 A3022 RMK A01 T01370048  RH  055%=      5-min Rain = 0
KFR1 091659Z 21006KT 14/05 A3022 RMK A01 T01370049  RH  055%=      5-min Rain = 0
KFR1 091700Z 22007KT 14/05 A3022 RMK A01 T01390050  RH  055%=      5-min Rain = 0
KFR1 091701Z 22007KT 14/05 A3022 RMK A01 T01410051  RH  055%=      5-min Rain = 0
KFR1 091702Z 21006KT 14/05 A3022 RMK A01 T01430050  RH  054%=      5-min Rain = 0
KFR1 091703Z 21007KT 14/05 A3022 RMK A01 T01440050  RH  053%=      5-min Rain = 0
KFR1 091704Z 23006KT 15/05 A3022 RMK A01 T01460052  RH  053%=      5-min Rain = 0
KFR1 091705Z 23007KT 15/05 A3022 RMK A01 T01460049  RH  052%=      5-min Rain = 0
KFR1 091706Z 23006KT 15/05 A3022 RMK A01 T01470050  RH  052%=      5-min Rain = 0
KFR1 091707Z 24007KT 15/05 A3021 RMK A01 T01480051  RH  052%=      5-min Rain = 0
KFR1 091708Z 23008KT 15/05 A3021 RMK A01 T01490050  RH  052%=      5-min Rain = 0
KFR1 091709Z 23008KT 15/05 A3021 RMK A01 T01490051  RH  052%=      5-min Rain = 0
KFR1 091710Z 23007KT 15/05 A3021 RMK A01 T01490048  RH  051%=      5-min Rain = 0
KFR1 091711Z 21007KT 15/05 A3021 RMK A01 T01470049  RH  052%=      5-min Rain = 0
KFR1 091712Z 22006KT 15/05 A3021 RMK A01 T01470047  RH  051%=      5-min Rain = 0
KFR1 091713Z 22006KT 15/05 A3021 RMK A01 T01460048  RH  052%=      5-min Rain = 0
KFR1 091714Z 23006KT 15/05 A3021 RMK A01 T01460049  RH  052%=      5-min Rain = 0
KFR1 091715Z 22005KT 15/05 A3021 RMK A01 T01480049  RH  051%=      5-min Rain = 0
KFR1 091716Z 23007KT 15/05 A3021 RMK A01 T01510049  RH  050%=      5-min Rain = 0
KFR1 091717Z 23007KT 15/05 A3021 RMK A01 T01520049  RH  050%=      5-min Rain = 0
KFR1 091718Z 23005KT 15/05 A3021 RMK A01 T01520050  RH  050%=      5-min Rain = 0
KFR1 091719Z 23008KT 15/05 A3021 RMK A01 T01530051  RH  051%=      5-min Rain = 0
KFR1 091720Z 23005KT 16/05 A3021 RMK A01 T01550052  RH  050%=      5-min Rain = 0
KFR1 091721Z 22006KT 16/05 A3021 RMK A01 T01570052  RH  050%=      5-min Rain = 0
KFR1 091722Z 22005KT 16/05 A3021 RMK A01 T01570050  RH  049%=      5-min Rain = 0
KFR1 091723Z 22004KT 16/05 A3021 RMK A01 T01560051  RH  050%=      5-min Rain = 0
KFR1 091724Z 24004KT 16/05 A3021 RMK A01 T01550050  RH  050%=      5-min Rain = 0
KFR1 091725Z 25005KT 16/05 A3021 RMK A01 T01570052  RH  050%=      5-min Rain = 0
KFR1 091726Z 24004KT 16/05 A3021 RMK A01 T01590050  RH  048%=      5-min Rain = 0
KFR1 091727Z 24005KT 16/05 A3021 RMK A01 T01590049  RH  048%=      5-min Rain = 0
KFR1 091728Z 25004KT 16/05 A3021 RMK A01 T01600049  RH  048%=      5-min Rain = 0
KFR1 091729Z 23005KT 16/05 A3021 RMK A01 T01620052  RH  048%=      5-min Rain = 0
KFR1 091730Z 23004KT 16/05 A3021 RMK A01 T01620051  RH  047%=      5-min Rain = 0
KFR1 091731Z 25003KT 16/05 A3021 RMK A01 T01620052  RH  048%=      5-min Rain = 0
KFR1 091732Z 25003KT 16/05 A3021 RMK A01 T01630054  RH  048%=      5-min Rain = 0
KFR1 091733Z 25004KT 16/06 A3021 RMK A01 T01640056  RH  049%=      5-min Rain = 0
KFR1 091734Z 23004KT 16/06 A3021 RMK A01 T01640056  RH  049%=      5-min Rain = 0
KFR1 091735Z 24005KT 16/06 A302 RMK A01 T01640056  RH  049%=      5-min Rain = 0
KFR1 091736Z 23005KT 17/05 A302 RMK A01 T01650050  RH  046%=      5-min Rain = 0
KFR1 091737Z 23004KT 16/05 A302 RMK A01 T01640049  RH  047%=      5-min Rain = 0
KFR1 091738Z 26003KT 16/06 A302 RMK A01 T01640055  RH  048%=      5-min Rain = 0
KFR1 091739Z 27002KT 17/06 A302 RMK A01 T01660057  RH  048%=      5-min Rain = 0
KFR1 091740Z 27003KT 17/05 A302 RMK A01 T01660054  RH  048%=      5-min Rain = 0
KFR1 091741Z 26003KT 17/06 A302 RMK A01 T01660055  RH  048%=      5-min Rain = 0
KFR1 091742Z 26003KT 17/05 A302 RMK A01 T01680054  RH  047%=      5-min Rain = 0
KFR1 091743Z 27003KT 17/05 A302 RMK A01 T01670053  RH  047%=      5-min Rain = 0
KFR1 091744Z 27003KT 17/05 A302 RMK A01 T01670054  RH  047%=      5-min Rain = 0
KFR1 091745Z 27003KT 17/05 A302 RMK A01 T01660053  RH  047%=      5-min Rain = 0
KFR1 091746Z 28003KT 17/05 A302 RMK A01 T01670053  RH  047%=      5-min Rain = 0
KFR1 091747Z 24004KT 17/06 A302 RMK A01 T01680055  RH  047%=      5-min Rain = 0
KFR1 091748Z 28005KT 17/05 A302 RMK A01 T01710054  RH  046%=      5-min Rain = 0
KFR1 091749Z 28004KT 17/05 A302 RMK A01 T01720054  RH  046%=      5-min Rain = 0
KFR1 091750Z 26003KT 17/05 A302 RMK A01 T01710053  RH  046%=      5-min Rain = 0
KFR1 091751Z 27002KT 17/05 A302 RMK A01 T01710054  RH  046%=      5-min Rain = 0
KFR1 091752Z 25002KT 17/06 A302 RMK A01 T01730057  RH  046%=      5-min Rain = 0
KFR1 091753Z 24002KT 18/06 A302 RMK A01 T01770055  RH  045%=      5-min Rain = 0
KFR1 091754Z 26003KT 18/05 A302 RMK A01 T01780054  RH  044%=      5-min Rain = 0
KFR1 091755Z 23003KT 18/05 A302 RMK A01 T01800053  RH  043%=      5-min Rain = 0
KFR1 091756Z 24005KT 18/05 A3019 RMK A01 T01820052  RH  042%=      5-min Rain = 0
KFR1 091757Z 24006KT 18/05 A3019 RMK A01 T01830049  RH  041%=      5-min Rain = 0
KFR1 091758Z 24006KT 18/05 A3019 RMK A01 T01840048  RH  041%=      5-min Rain = 0
KFR1 091759Z 25007KT 19/04 A3019 RMK A01 T01850042  RH  039%=      5-min Rain = 0
KFR1 091800Z 24007KT 18/04 A3019 RMK A01 T01840042  RH  039%=      5-min Rain = 0
KFR1 091801Z 24006KT 18/04 A3019 RMK A01 T01840043  RH  039%=      5-min Rain = 0
KFR1 091802Z 23004KT 18/04 A3019 RMK A01 T01840044  RH  039%=      5-min Rain = 0
KFR1 091803Z 25005KT 19/04 A3019 RMK A01 T01860044  RH  039%=      5-min Rain = 0
KFR1 091804Z 24007KT 19/04 A3019 RMK A01 T01880042  RH  038%=      5-min Rain = 0
KFR1 091805Z 23007KT 19/04 A3019 RMK A01 T01880038  RH  037%=      5-min Rain = 0
KFR1 091806Z 22008KT 19/04 A3019 RMK A01 T01880039  RH  037%=      5-min Rain = 0
KFR1 091807Z 22009KT 19/04 A3018 RMK A01 T01870035  RH  036%=      5-min Rain = 0
KFR1 091808Z 22009KT 19/03 A3018 RMK A01 T01850031  RH  036%=      5-min Rain = 0
KFR1 091809Z 22007KT 18/04 A3018 RMK A01 T01840035  RH  037%=      5-min Rain = 0
KFR1 091810Z 23006KT 18/04 A3018 RMK A01 T01840035  RH  037%=      5-min Rain = 0
KFR1 091811Z 23008KT 19/04 A3018 RMK A01 T01860038  RH  037%=      5-min Rain = 0
KFR1 091812Z 23006KT 19/04 A3018 RMK A01 T01890038  RH  037%=      5-min Rain = 0
KFR1 091813Z 22006KT 19/04 A3018 RMK A01 T01900040  RH  037%=      5-min Rain = 0
KFR1 091814Z 23007KT 19/04 A3018 RMK A01 T01910038  RH  036%=      5-min Rain = 0
KFR1 091815Z 23008KT 19/04 A3018 RMK A01 T01920037  RH  036%=      5-min Rain = 0
KFR1 091816Z 24008KT 19/03 A3018 RMK A01 T01940032  RH  034%=      5-min Rain = 0
KFR1 091817Z 24008KT 19/03 A3018 RMK A01 T01940029  RH  034%=      5-min Rain = 0
KFR1 091818Z 24007KT 19/03 A3018 RMK A01 T01940034  RH  035%=      5-min Rain = 0
KFR1 091819Z 23006KT 20/04 A3018 RMK A01 T01960037  RH  035%=      5-min Rain = 0
KFR1 091820Z 23007KT 20/04 A3017 RMK A01 T01970036  RH  034%=      5-min Rain = 0
KFR1 091821Z 23008KT 20/04 A3017 RMK A01 T01980037  RH  035%=      5-min Rain = 0
KFR1 091822Z 22009KT 20/03 A3017 RMK A01 T02000031  RH  032%=      5-min Rain = 0
KFR1 091823Z 23007KT 20/03 A3017 RMK A01 T01990030  RH  033%=      5-min Rain = 0
KFR1 091824Z 22007KT 20/03 A3017 RMK A01 T01990033  RH  033%=      5-min Rain = 0
KFR1 091825Z 23007KT 20/03 A3017 RMK A01 T02000034  RH  033%=      5-min Rain = 0
KFR1 091826Z 23009KT 20/03 A3017 RMK A01 T01990031  RH  033%=      5-min Rain = 0
KFR1 091827Z 23009KT 20/03 A3017 RMK A01 T01990029  RH  032%=      5-min Rain = 0
KFR1 091828Z 23008KT 20/04 A3017 RMK A01 T02000035  RH  034%=      5-min Rain = 0
KFR1 091829Z 22008KT 20/03 A3017 RMK A01 T02020034  RH  033%=      5-min Rain = 0
KFR1 091830Z 21009KT 20/03 A3017 RMK A01 T02030029  RH  032%=      5-min Rain = 0
KFR1 091831Z 22011KT 20/03 A3017 RMK A01 T02010030  RH  032%=      5-min Rain = 0
KFR1 091832Z 21007KT 20/03 A3016 RMK A01 T02000030  RH  033%=      5-min Rain = 0
KFR1 091833Z 21006KT 20/03 A3016 RMK A01 T02000033  RH  033%=      5-min Rain = 0
KFR1 091834Z 22008KT 20/03 A3016 RMK A01 T02010033  RH  033%=      5-min Rain = 0
KFR1 091835Z 23009KT 20/04 A3016 RMK A01 T02010035  RH  033%=      5-min Rain = 0
KFR1 091836Z 24008KT 20/03 A3016 RMK A01 T02010031  RH  032%=      5-min Rain = 0
KFR1 091837Z 23009KT 20/03 A3016 RMK A01 T02020031  RH  032%=      5-min Rain = 0
KFR1 091838Z 23010KT 20/03 A3016 RMK A01 T02030029  RH  032%=      5-min Rain = 0
KFR1 091839Z 24008KT 20/03 A3016 RMK A01 T02040026  RH  031%=      5-min Rain = 0
KFR1 091840Z 23009KT 21/03 A3016 RMK A01 T02050028  RH  031%=      5-min Rain = 0
KFR1 091841Z 21007KT 21/03 A3016 RMK A01 T02050027  RH  031%=      5-min Rain = 0
KFR1 091842Z 22007KT 21/03 A3016 RMK A01 T02060029  RH  031%=      5-min Rain = 0
KFR1 091843Z 22010KT 21/03 A3016 RMK A01 T02070027  RH  030%=      5-min Rain = 0
KFR1 091844Z 22009KT 21/02 A3016 RMK A01 T02070023  RH  030%=      5-min Rain = 0
KFR1 091845Z 22010KT 21/02 A3016 RMK A01 T02070022  RH  029%=      5-min Rain = 0
KFR1 091846Z 22011KT 21/02 A3016 RMK A01 T02070022  RH  029%=      5-min Rain = 0
KFR1 091847Z 23009KT 21/02 A3016 RMK A01 T02070024  RH  030%=      5-min Rain = 0
KFR1 091848Z 22006KT 21/02 A3016 RMK A01 T02070023  RH  030%=      5-min Rain = 0
KFR1 091849Z 22006KT 21/03 A3016 RMK A01 T02070025  RH  030%=      5-min Rain = 0
KFR1 091850Z 24006KT 21/03 A3016 RMK A01 T02080028  RH  030%=      5-min Rain = 0
KFR1 091851Z 24006KT 21/03 A3016 RMK A01 T02100029  RH  030%=      5-min Rain = 0
KFR1 091852Z 24008KT 21/03 A3015 RMK A01 T02120028  RH  030%=      5-min Rain = 0
KFR1 091853Z 24009KT 21/03 A3015 RMK A01 T02140029  RH  029%=      5-min Rain = 0
KFR1 091854Z 21007KT 22/03 A3015 RMK A01 T02150025  RH  029%=      5-min Rain = 0
KFR1 091855Z 23006KT 21/03 A3015 RMK A01 T02140028  RH  029%=      5-min Rain = 0
KFR1 091856Z 22009KT 21/03 A3015 RMK A01 T02140027  RH  029%=      5-min Rain = 0
KFR1 091857Z 22009KT 22/03 A3015 RMK A01 T02150028  RH  029%=      5-min Rain = 0
KFR1 091858Z 22008KT 22/03 A3015 RMK A01 T02160025  RH  028%=      5-min Rain = 0
KFR1 091859Z 21008KT 22/03 A3015 RMK A01 T02150025  RH  028%=      5-min Rain = 0
KFR1 091900Z 22006KT 22/03 A3015 RMK A01 T02150026  RH  029%=      5-min Rain = 0
KFR1 091901Z 21007KT 22/02 A3015 RMK A01 T02160024  RH  028%=      5-min Rain = 0
KFR1 091902Z 22008KT 22/02 A3015 RMK A01 T02190023  RH  027%=      5-min Rain = 0
KFR1 091903Z 22008KT 22/02 A3015 RMK A01 T02200020  RH  027%=      5-min Rain = 0
KFR1 091904Z 22009KT 22/02 A3015 RMK A01 T02180018  RH  027%=      5-min Rain = 0
KFR1 091905Z 23008KT 22/02 A3015 RMK A01 T02170018  RH  027%=      5-min Rain = 0
KFR1 091906Z 23006KT 22/02 A3015 RMK A01 T02160015  RH  026%=      5-min Rain = 0
KFR1 091907Z 21008KT 22/01 A3014 RMK A01 T02150014  RH  026%=      5-min Rain = 0
KFR1 091908Z 21009KT 22/01 A3014 RMK A01 T02170011  RH  026%=      5-min Rain = 0
KFR1 091909Z 21008KT 22/02 A3014 RMK A01 T02180017  RH  027%=      5-min Rain = 0
KFR1 091910Z 22006KT 22/02 A3014 RMK A01 T02170017  RH  026%=      5-min Rain = 0
KFR1 091911Z 21008KT 22/02 A3014 RMK A01 T02180017  RH  026%=      5-min Rain = 0
KFR1 091912Z 21009KT 22/01 A3014 RMK A01 T02200014  RH  026%=      5-min Rain = 0
KFR1 091913Z 22009KT 22/01 A3014 RMK A01 T02220013  RH  025%=      5-min Rain = 0
KFR1 091914Z 22007KT 22/01 A3014 RMK A01 T02220014  RH  025%=      5-min Rain = 0
KFR1 091915Z 23007KT 22/02 A3014 RMK A01 T02210019  RH  026%=      5-min Rain = 0
KFR1 091916Z 25008KT 22/02 A3014 RMK A01 T02220017  RH  026%=      5-min Rain = 0
KFR1 091917Z 23008KT 22/01 A3014 RMK A01 T02220013  RH  025%=      5-min Rain = 0
KFR1 091918Z 24008KT 22/01 A3014 RMK A01 T02220013  RH  025%=      5-min Rain = 0
KFR1 091919Z 24008G13KT 22/02 A3014 RMK A01 T02220016  RH  026%=      5-min Rain = 0
KFR1 091920Z 22010KT 22/01 A3013 RMK A01 T02240010  RH  024%=      5-min Rain = 0
KFR1 091921Z 22008KT 22/01 A3013 RMK A01 T02240010  RH  024%=      5-min Rain = 0
KFR1 091922Z 23007KT 22/01 A3013 RMK A01 T02230010  RH  024%=      5-min Rain = 0
KFR1 091923Z 24008KT 22/01 A3013 RMK A01 T02230011  RH  025%=      5-min Rain = 0
KFR1 091924Z 24008KT 22/01 A3013 RMK A01 T02240010  RH  024%=      5-min Rain = 0
KFR1 091925Z 23010KT 23/00 A3013 RMK A01 T02260004  RH  023%=      5-min Rain = 0
KFR1 091926Z 22009KT 23/M00 A3013 RMK A01 T02261003  RH  022%=      5-min Rain = 0
KFR1 091927Z 22007KT 23/00 A3013 RMK A01 T02260002  RH  023%=      5-min Rain = 0
KFR1 091928Z 21009KT 23/M01 A3013 RMK A01 T02281006  RH  021%=      5-min Rain = 0
KFR1 091929Z 22007KT 23/M01 A3013 RMK A01 T02281010  RH  020%=      5-min Rain = 0
KFR1 091930Z 23006KT 23/M00 A3013 RMK A01 T02291003  RH  021%=      5-min Rain = 0
KFR1 091931Z 23010KT 23/00 A3013 RMK A01 T022800-0  RH  022%=      5-min Rain = 0
KFR1 091932Z 24007KT 23/M00 A3013 RMK A01 T02291001  RH  022%=      5-min Rain = 0
KFR1 091933Z 23008KT 23/00 A3013 RMK A01 T02310002  RH  022%=      5-min Rain = 0
KFR1 091934Z 23009KT 23/00 A3013 RMK A01 T02320000  RH  022%=      5-min Rain = 0
KFR1 091935Z 23009KT 23/00 A3012 RMK A01 T02290003  RH  022%=      5-min Rain = 0
KFR1 091936Z 22010KT 23/M01 A3012 RMK A01 T02301007  RH  021%=      5-min Rain = 0
KFR1 091937Z 21009KT 23/M01 A3012 RMK A01 T02311013  RH  020%=      5-min Rain = 0
KFR1 091938Z 23010G15KT 23/M01 A3012 RMK A01 T02321011  RH  020%=      5-min Rain = 0
KFR1 091939Z 23013KT 23/M02 A3012 RMK A01 T02331022  RH  018%=      5-min Rain = 0
KFR1 091940Z 22010KT 23/M02 A3012 RMK A01 T02301020  RH  019%=      5-min Rain = 0
KFR1 091941Z 23011KT 23/M02 A3012 RMK A01 T02301018  RH  019%=      5-min Rain = 0
KFR1 091942Z 22012KT 23/M02 A3012 RMK A01 T02311017  RH  019%=      5-min Rain = 0
KFR1 091943Z 23012KT 23/M02 A3012 RMK A01 T02301019  RH  019%=      5-min Rain = 0
KFR1 091944Z 21012KT 23/M02 A3012 RMK A01 T02301020  RH  019%=      5-min Rain = 0
KFR1 091945Z 22012KT 23/M02 A3012 RMK A01 T02301020  RH  019%=      5-min Rain = 0
KFR1 091946Z 23011KT 23/M02 A3012 RMK A01 T02291020  RH  019%=      5-min Rain = 0
KFR1 091947Z 23013KT 23/M02 A3011 RMK A01 T02291023  RH  019%=      5-min Rain = 0
KFR1 091948Z 24013KT 23/M03 A3011 RMK A01 T02311025  RH  018%=      5-min Rain = 0
KFR1 091949Z 24010KT 23/M03 A3011 RMK A01 T02321026  RH  018%=      5-min Rain = 0
KFR1 091950Z 25011KT 23/M02 A3011 RMK A01 T02331021  RH  018%=      5-min Rain = 0
KFR1 091951Z 23012KT 23/M02 A3011 RMK A01 T02331017  RH  019%=      5-min Rain = 0
KFR1 091952Z 23011KT 23/M02 A3011 RMK A01 T02331016  RH  019%=      5-min Rain = 0
KFR1 091953Z 23009KT 23/M01 A3011 RMK A01 T02331011  RH  020%=      5-min Rain = 0
KFR1 091954Z 22008KT 24/M01 A3011 RMK A01 T02351010  RH  020%=      5-min Rain = 0
KFR1 091955Z 23012KT 24/M01 A3011 RMK A01 T02351014  RH  019%=      5-min Rain = 0
KFR1 091956Z 23012KT 23/M02 A3011 RMK A01 T02341021  RH  018%=      5-min Rain = 0
KFR1 091957Z 23013KT 24/M02 A3011 RMK A01 T02351024  RH  018%=      5-min Rain = 0
KFR1 091958Z 23012G17KT 24/M02 A3011 RMK A01 T02351019  RH  018%=      5-min Rain = 0
KFR1 091959Z 23011KT 23/M02 A3011 RMK A01 T02341017  RH  019%=      5-min Rain = 0
KFR1 092000Z 23011KT 24/M02 A3011 RMK A01 T02351024  RH  018%=      5-min Rain = 0
KFR1 092001Z 23011KT 24/M02 A3011 RMK A01 T02351022  RH  018%=      5-min Rain = 0
KFR1 092002Z 23012KT 24/M02 A301 RMK A01 T02371020  RH  018%=      5-min Rain = 0
KFR1 092003Z 22010KT 24/M02 A301 RMK A01 T02371024  RH  017%=      5-min Rain = 0
KFR1 092004Z 23009KT 24/M02 A301 RMK A01 T02361022  RH  018%=      5-min Rain = 0
KFR1 092005Z 24011KT 24/M02 A301 RMK A01 T02361021  RH  018%=      5-min Rain = 0
KFR1 092006Z 25012KT 24/M02 A301 RMK A01 T02361018  RH  018%=      5-min Rain = 0
KFR1 092007Z 24013KT 24/M01 A301 RMK A01 T02361014  RH  019%=      5-min Rain = 0
KFR1 092008Z 22012KT 24/M02 A301 RMK A01 T02361015  RH  019%=      5-min Rain = 0
KFR1 092009Z 23012KT 24/M01 A301 RMK A01 T02351013  RH  019%=      5-min Rain = 0
KFR1 092010Z 23013KT 24/M02 A301 RMK A01 T02371018  RH  018%=      5-min Rain = 0
KFR1 092011Z 23013KT 24/M02 A301 RMK A01 T02391023  RH  017%=      5-min Rain = 0
KFR1 092012Z 23010KT 24/M01 A301 RMK A01 T02371013  RH  019%=      5-min Rain = 0
KFR1 092013Z 23012KT 24/M01 A301 RMK A01 T02371006  RH  020%=      5-min Rain = 0
KFR1 092014Z 23012KT 24/M00 A301 RMK A01 T02371004  RH  020%=      5-min Rain = 0
KFR1 092015Z 23010KT 24/M00 A301 RMK A01 T02361002  RH  021%=      5-min Rain = 0
KFR1 092016Z 23011KT 24/M00 A301 RMK A01 T02361003  RH  021%=      5-min Rain = 0
KFR1 092017Z 22010KT 23/M00 A301 RMK A01 T02341003  RH  021%=      5-min Rain = 0
KFR1 092018Z 22014KT 23/01 A301 RMK A01 T02340006  RH  022%=      5-min Rain = 0
KFR1 092019Z 23011KT 23/01 A301 RMK A01 T02340009  RH  023%=      5-min Rain = 0
KFR1 092020Z 23012KT 24/01 A301 RMK A01 T02360010  RH  023%=      5-min Rain = 0
KFR1 092021Z 23012KT 24/01 A301 RMK A01 T02360010  RH  022%=      5-min Rain = 0
KFR1 092022Z 23011KT 24/01 A301 RMK A01 T02360009  RH  022%=      5-min Rain = 0
KFR1 092023Z 23010KT 23/01 A301 RMK A01 T02340009  RH  023%=      5-min Rain = 0
KFR1 092024Z 23008KT 23/00 A301 RMK A01 T02340004  RH  022%=      5-min Rain = 0
KFR1 092025Z 23010KT 23/01 A301 RMK A01 T02340009  RH  023%=      5-min Rain = 0
KFR1 092026Z 21010KT 24/01 A301 RMK A01 T02350013  RH  023%=      5-min Rain = 0
KFR1 092027Z 21010KT 24/01 A301 RMK A01 T02350014  RH  023%=      5-min Rain = 0
KFR1 092028Z 21008KT 24/01 A301 RMK A01 T02350014  RH  023%=      5-min Rain = 0
KFR1 092029Z 21011KT 24/02 A3009 RMK A01 T02350015  RH  024%=      5-min Rain = 0
KFR1 092030Z 21011KT 24/02 A3009 RMK A01 T02350016  RH  024%=      5-min Rain = 0
KFR1 092031Z 21009KT 23/02 A3009 RMK A01 T02340017  RH  024%=      5-min Rain = 0
KFR1 092032Z 23008KT 23/02 A3009 RMK A01 T02340017  RH  024%=      5-min Rain = 0
KFR1 092033Z 23007KT 24/02 A3009 RMK A01 T02360021  RH  024%=      5-min Rain = 0
KFR1 092034Z 21009KT 24/02 A3009 RMK A01 T02370020  RH  024%=      5-min Rain = 0
KFR1 092035Z 22010KT 24/02 A3009 RMK A01 T02360019  RH  024%=      5-min Rain = 0
KFR1 092036Z 23010KT 24/02 A3009 RMK A01 T02370022  RH  024%=      5-min Rain = 0
KFR1 092037Z 22011KT 24/02 A3009 RMK A01 T02380021  RH  024%=      5-min Rain = 0
KFR1 092038Z 22012KT 24/02 A3009 RMK A01 T02380021  RH  024%=      5-min Rain = 0
KFR1 092039Z 23011KT 24/02 A3009 RMK A01 T02370020  RH  024%=      5-min Rain = 0
KFR1 092040Z 22008KT 24/02 A3009 RMK A01 T02360019  RH  024%=      5-min Rain = 0
KFR1 092041Z 21009KT 24/02 A3009 RMK A01 T02360019  RH  024%=      5-min Rain = 0
KFR1 092042Z 22008KT 24/02 A3009 RMK A01 T02370022  RH  024%=      5-min Rain = 0
KFR1 092043Z 20008KT 24/02 A3009 RMK A01 T02390019  RH  024%=      5-min Rain = 0
KFR1 092044Z 21008KT 24/02 A3009 RMK A01 T02410020  RH  024%=      5-min Rain = 0
KFR1 092045Z 20007KT 24/02 A3009 RMK A01 T02410019  RH  023%=      5-min Rain = 0
KFR1 092046Z 20006KT 24/02 A3009 RMK A01 T02410016  RH  023%=      5-min Rain = 0
KFR1 092047Z 21006KT 24/02 A3009 RMK A01 T02390017  RH  023%=      5-min Rain = 0
KFR1 092048Z 22006G11KT 24/02 A3009 RMK A01 T02400018  RH  023%=      5-min Rain = 0
KFR1 092049Z 24010KT 24/02 A3009 RMK A01 T02410017  RH  023%=      5-min Rain = 0
KFR1 092050Z 24009KT 24/02 A3009 RMK A01 T02420017  RH  023%=      5-min Rain = 0
KFR1 092051Z 22010KT 24/02 A3009 RMK A01 T02430020  RH  023%=      5-min Rain = 0
KFR1 092052Z 23009KT 25/02 A3009 RMK A01 T02450016  RH  022%=      5-min Rain = 0
KFR1 092053Z 23009KT 25/02 A3008 RMK A01 T02450018  RH  023%=      5-min Rain = 0
KFR1 092054Z 22006KT 24/02 A3008 RMK A01 T02430016  RH  023%=      5-min Rain = 0
KFR1 092055Z 22006KT 24/02 A3008 RMK A01 T02430016  RH  023%=      5-min Rain = 0
KFR1 092056Z 22007KT 24/01 A3008 RMK A01 T02440014  RH  022%=      5-min Rain = 0
KFR1 092057Z 24008KT 24/02 A3008 RMK A01 T02440017  RH  023%=      5-min Rain = 0
KFR1 092058Z 23012KT 25/02 A3008 RMK A01 T02450015  RH  022%=      5-min Rain = 0
KFR1 092059Z 22011KT 25/01 A3008 RMK A01 T02460013  RH  022%=      5-min Rain = 0
KFR1 092100Z 23010KT 24/01 A3008 RMK A01 T02440012  RH  022%=      5-min Rain = 0
KFR1 092101Z 23010KT 24/01 A3008 RMK A01 T02430014  RH  022%=      5-min Rain = 0
KFR1 092102Z 24009KT 24/01 A3008 RMK A01 T02420013  RH  022%=      5-min Rain = 0
KFR1 092103Z 22007KT 24/01 A3008 RMK A01 T02420014  RH  022%=      5-min Rain = 0
KFR1 092104Z 22008KT 24/01 A3008 RMK A01 T02440014  RH  022%=      5-min Rain = 0
KFR1 092105Z 23009KT 25/01 A3008 RMK A01 T02460006  RH  021%=      5-min Rain = 0
KFR1 092106Z 21010KT 25/01 A3008 RMK A01 T02460006  RH  021%=      5-min Rain = 0
KFR1 092107Z 21009KT 25/00 A3008 RMK A01 T02450004  RH  020%=      5-min Rain = 0
KFR1 092108Z 21009KT 25/00 A3008 RMK A01 T02450004  RH  020%=      5-min Rain = 0
KFR1 092109Z 20011KT 25/M00 A3008 RMK A01 T02451001  RH  020%=      5-min Rain = 0
KFR1 092110Z 21011KT 25/M01 A3007 RMK A01 T02451007  RH  019%=      5-min Rain = 0
KFR1 092111Z 21012KT 25/M01 A3007 RMK A01 T02451010  RH  018%=      5-min Rain = 0
KFR1 092112Z 21010KT 25/M01 A3007 RMK A01 T02451012  RH  018%=      5-min Rain = 0
KFR1 092113Z 22011KT 25/M01 A3007 RMK A01 T02461012  RH  018%=      5-min Rain = 0
KFR1 092114Z 23011KT 25/M02 A3007 RMK A01 T02471017  RH  017%=      5-min Rain = 0
KFR1 092115Z 23012G18KT 25/M02 A3007 RMK A01 T02461018  RH  017%=      5-min Rain = 0
KFR1 092116Z 22013KT 25/M02 A3007 RMK A01 T02471021  RH  017%=      5-min Rain = 0
KFR1 092117Z 21013KT 25/M02 A3007 RMK A01 T02471021  RH  017%=      5-min Rain = 0
KFR1 092118Z 21013KT 25/M02 A3007 RMK A01 T02471021  RH  017%=      5-min Rain = 0
KFR1 092119Z 21012KT 25/M02 A3007 RMK A01 T02471022  RH  017%=      5-min Rain = 0
KFR1 092120Z 21010KT 25/M02 A3007 RMK A01 T02471023  RH  017%=      5-min Rain = 0
KFR1 092121Z 20012KT 25/M02 A3007 RMK A01 T02461023  RH  017%=      5-min Rain = 0
KFR1 092122Z 21010KT 25/M02 A3007 RMK A01 T02461023  RH  017%=      5-min Rain = 0
KFR1 092123Z 20009KT 25/M02 A3007 RMK A01 T02461023  RH  017%=      5-min Rain = 0
KFR1 092124Z 21009KT 25/M02 A3007 RMK A01 T02461022  RH  017%=      5-min Rain = 0
KFR1 092125Z 22012KT 25/M02 A3007 RMK A01 T02471023  RH  017%=      5-min Rain = 0
KFR1 092126Z 22013KT 25/M03 A3007 RMK A01 T02481025  RH  016%=      5-min Rain = 0
KFR1 092127Z 22011KT 25/M03 A3007 RMK A01 T02481026  RH  016%=      5-min Rain = 0
KFR1 092128Z 22009KT 25/M03 A3007 RMK A01 T02471027  RH  016%=      5-min Rain = 0
KFR1 092129Z 21008KT 25/M02 A3007 RMK A01 T02481024  RH  016%=      5-min Rain = 0
KFR1 092130Z 21009KT 25/M02 A3007 RMK A01 T02491024  RH  016%=      5-min Rain = 0
KFR1 092131Z 21009KT 25/M03 A3007 RMK A01 T02491025  RH  016%=      5-min Rain = 0
KFR1 092132Z 20013KT 25/M03 A3007 RMK A01 T02491028  RH  016%=      5-min Rain = 0
KFR1 092133Z 20012KT 25/M03 A3007 RMK A01 T02491029  RH  016%=      5-min Rain = 0
KFR1 092134Z 20009KT 25/M03 A3007 RMK A01 T02491029  RH  016%=      5-min Rain = 0
KFR1 092135Z 20009KT 25/M03 A3007 RMK A01 T02501027  RH  016%=      5-min Rain = 0
KFR1 092136Z 21009KT 25/M03 A3007 RMK A01 T02501027  RH  016%=      5-min Rain = 0
KFR1 092137Z 21007KT 25/M03 A3007 RMK A01 T02501025  RH  016%=      5-min Rain = 0
KFR1 092138Z 22009KT 25/M03 A3007 RMK A01 T02511026  RH  016%=      5-min Rain = 0
KFR1 092139Z 21011KT 25/M03 A3007 RMK A01 T02501028  RH  016%=      5-min Rain = 0
KFR1 092140Z 22010KT 25/M03 A3007 RMK A01 T02491030  RH  016%=      5-min Rain = 0
KFR1 092141Z 22011KT 25/M03 A3007 RMK A01 T02491027  RH  016%=      5-min Rain = 0
KFR1 092142Z 21011KT 25/M03 A3007 RMK A01 T02491030  RH  016%=      5-min Rain = 0
KFR1 092143Z 21012KT 25/M03 A3006 RMK A01 T02481030  RH  016%=      5-min Rain = 0
KFR1 092144Z 22012G17KT 25/M03 A3006 RMK A01 T02481030  RH  016%=      5-min Rain = 0
KFR1 092145Z 22010KT 25/M03 A3006 RMK A01 T02481028  RH  016%=      5-min Rain = 0
KFR1 092146Z 22009KT 25/M03 A3006 RMK A01 T02481028  RH  016%=      5-min Rain = 0
KFR1 092147Z 21009KT 25/M03 A3006 RMK A01 T02481026  RH  016%=      5-min Rain = 0
KFR1 092148Z 22010KT 25/M03 A3006 RMK A01 T02491027  RH  016%=      5-min Rain = 0
KFR1 092149Z 21015KT 25/M03 A3006 RMK A01 T02501031  RH  015%=      5-min Rain = 0
KFR1 092150Z 22013KT 25/M04 A3006 RMK A01 T02491037  RH  015%=      5-min Rain = 0
KFR1 092151Z 22013KT 25/M04 A3006 RMK A01 T02471036  RH  015%=      5-min Rain = 0
KFR1 092152Z 23011KT 25/M04 A3006 RMK A01 T02461037  RH  015%=      5-min Rain = 0
KFR1 092153Z 23009KT 25/M04 A3006 RMK A01 T02461035  RH  015%=      5-min Rain = 0
KFR1 092154Z 22008KT 25/M04 A3006 RMK A01 T02461035  RH  015%=      5-min Rain = 0
KFR1 092155Z 21009KT 25/M03 A3006 RMK A01 T02471034  RH  015%=      5-min Rain = 0
KFR1 092156Z 21008KT 25/M03 A3006 RMK A01 T02471033  RH  015%=      5-min Rain = 0
KFR1 092157Z 20009KT 25/M03 A3006 RMK A01 T02481031  RH  016%=      5-min Rain = 0
KFR1 092158Z 20011KT 25/M03 A3006 RMK A01 T02491033  RH  015%=      5-min Rain = 0
KFR1 092159Z 21011KT 25/M03 A3006 RMK A01 T02491033  RH  015%=      5-min Rain = 0
KFR1 092200Z 21012KT 25/M04 A3006 RMK A01 T02481035  RH  015%=      5-min Rain = 0
KFR1 092201Z 20011KT 25/M04 A3006 RMK A01 T02461039  RH  015%=      5-min Rain = 0
KFR1 092202Z 20011KT 25/M04 A3006 RMK A01 T02461038  RH  015%=      5-min Rain = 0
KFR1 092203Z 20011KT 25/M04 A3006 RMK A01 T02451037  RH  015%=      5-min Rain = 0
KFR1 092204Z 21011KT 25/M04 A3006 RMK A01 T02451036  RH  015%=      5-min Rain = 0
KFR1 092205Z 21012KT 25/M04 A3006 RMK A01 T02461037  RH  015%=      5-min Rain = 0
KFR1 092206Z 20011KT 25/M04 A3006 RMK A01 T02451039  RH  015%=      5-min Rain = 0
KFR1 092207Z 20010KT 25/M04 A3006 RMK A01 T02451037  RH  015%=      5-min Rain = 0
KFR1 092208Z 20011KT 25/M04 A3006 RMK A01 T02461037  RH  015%=      5-min Rain = 0
KFR1 092209Z 21010KT 25/M04 A3006 RMK A01 T02461038  RH  015%=      5-min Rain = 0
KFR1 092210Z 20010KT 25/M04 A3006 RMK A01 T02461037  RH  015%=      5-min Rain = 0
KFR1 092211Z 20013KT 25/M04 A3006 RMK A01 T02461039  RH  015%=      5-min Rain = 0
KFR1 092212Z 22014KT 25/M04 A3006 RMK A01 T02461039  RH  015%=      5-min Rain = 0
KFR1 092213Z 21012KT 25/M04 A3006 RMK A01 T02451042  RH  015%=      5-min Rain = 0
KFR1 092214Z 21013KT 24/M04 A3006 RMK A01 T02441041  RH  015%=      5-min Rain = 0
KFR1 092215Z 21013KT 24/M04 A3006 RMK A01 T02441044  RH  014%=      5-min Rain = 0
KFR1 092216Z 21011KT 24/M04 A3006 RMK A01 T02441044  RH  014%=      5-min Rain = 0
KFR1 092217Z 21011KT 24/M04 A3006 RMK A01 T02441042  RH  015%=      5-min Rain = 0
KFR1 092218Z 21012KT 24/M04 A3005 RMK A01 T02441043  RH  015%=      5-min Rain = 0
KFR1 092219Z 20012KT 24/M04 A3005 RMK A01 T02441042  RH  015%=      5-min Rain = 0
KFR1 092220Z 21012KT 24/M04 A3005 RMK A01 T02431040  RH  015%=      5-min Rain = 0
KFR1 092221Z 21010KT 24/M04 A3005 RMK A01 T02431041  RH  015%=      5-min Rain = 0
KFR1 092222Z 20011KT 24/M04 A3005 RMK A01 T02431040  RH  015%=      5-min Rain = 0
KFR1 092223Z 20012KT 24/M04 A3005 RMK A01 T02431041  RH  015%=      5-min Rain = 0
KFR1 092224Z 20012KT 24/M04 A3005 RMK A01 T02431040  RH  015%=      5-min Rain = 0
KFR1 092225Z 20012KT 24/M04 A3005 RMK A01 T02421041  RH  015%=      5-min Rain = 0
KFR1 092226Z 19013KT 24/M04 A3005 RMK A01 T02421042  RH  015%=      5-min Rain = 0
KFR1 092227Z 20012KT 24/M04 A3005 RMK A01 T02421042  RH  015%=      5-min Rain = 0
KFR1 092228Z 22012KT 24/M04 A3005 RMK A01 T02421040  RH  015%=      5-min Rain = 0
KFR1 092229Z 21012KT 24/M04 A3005 RMK A01 T02421042  RH  015%=      5-min Rain = 0
KFR1 092230Z 21010KT 24/M04 A3005 RMK A01 T02421041  RH  015%=      5-min Rain = 0
KFR1 092231Z 21009KT 24/M04 A3005 RMK A01 T02421039  RH  015%=      5-min Rain = 0
KFR1 092232Z 21012KT 24/M04 A3005 RMK A01 T02431037  RH  015%=      5-min Rain = 0
KFR1 092233Z 21012KT 24/M04 A3005 RMK A01 T02421038  RH  015%=      5-min Rain = 0
KFR1 092234Z 21011KT 24/M04 A3005 RMK A01 T02421037  RH  015%=      5-min Rain = 0
KFR1 092235Z 21012KT 24/M04 A3005 RMK A01 T02421038  RH  015%=      5-min Rain = 0
KFR1 092236Z 21010KT 24/M04 A3005 RMK A01 T02411036  RH  016%=      5-min Rain = 0
KFR1 092237Z 21009KT 24/M04 A3005 RMK A01 T02411036  RH  016%=      5-min Rain = 0
KFR1 092238Z 22009KT 24/M03 A3005 RMK A01 T02411034  RH  016%=      5-min Rain = 0
KFR1 092239Z 22010KT 24/M04 A3005 RMK A01 T02411037  RH  015%=      5-min Rain = 0
KFR1 092240Z 21009KT 24/M04 A3005 RMK A01 T02411039  RH  015%=      5-min Rain = 0
KFR1 092241Z 21010KT 24/M04 A3005 RMK A01 T02411038  RH  015%=      5-min Rain = 0
KFR1 092242Z 22011KT 24/M04 A3005 RMK A01 T02411038  RH  015%=      5-min Rain = 0
KFR1 092243Z 21010KT 24/M04 A3005 RMK A01 T02411040  RH  015%=      5-min Rain = 0
KFR1 092244Z 20010KT 24/M04 A3005 RMK A01 T02411039  RH  015%=      5-min Rain = 0
KFR1 092245Z 21010KT 24/M04 A3005 RMK A01 T02401037  RH  016%=      5-min Rain = 0
KFR1 092246Z 21011KT 24/M04 A3005 RMK A01 T02401039  RH  015%=      5-min Rain = 0
KFR1 092247Z 20010KT 24/M04 A3005 RMK A01 T02391038  RH  016%=      5-min Rain = 0
KFR1 092248Z 21010KT 24/M04 A3005 RMK A01 T02391036  RH  016%=      5-min Rain = 0
KFR1 092249Z 21011KT 24/M04 A3005 RMK A01 T02391038  RH  016%=      5-min Rain = 0
KFR1 092250Z 21009KT 24/M04 A3005 RMK A01 T02381038  RH  016%=      5-min Rain = 0
KFR1 092251Z 21009KT 24/M04 A3005 RMK A01 T02381038  RH  016%=      5-min Rain = 0
KFR1 092252Z 20008KT 24/M04 A3005 RMK A01 T02381036  RH  016%=      5-min Rain = 0
KFR1 092253Z 20008KT 24/M04 A3005 RMK A01 T02371035  RH  016%=      5-min Rain = 0
KFR1 092254Z 21008KT 24/M04 A3005 RMK A01 T02371035  RH  016%=      5-min Rain = 0
KFR1 092255Z 21010KT 24/M04 A3005 RMK A01 T02361037  RH  016%=      5-min Rain = 0
KFR1 092256Z 21011KT 24/M04 A3005 RMK A01 T02361039  RH  016%=      5-min Rain = 0
KFR1 092257Z 21011KT 24/M04 A3005 RMK A01 T02361040  RH  016%=      5-min Rain = 0
KFR1 092258Z 20008KT 24/M04 A3005 RMK A01 T02361038  RH  016%=      5-min Rain = 0
KFR1 092259Z 21010KT 24/M04 A3005 RMK A01 T02361036  RH  016%=      5-min Rain = 0
KFR1 092300Z 20009KT 24/M04 A3005 RMK A01 T02351038  RH  016%=      5-min Rain = 0
KFR1 092301Z 21009KT 24/M04 A3005 RMK A01 T02351037  RH  016%=      5-min Rain = 0
KFR1 092302Z 20010KT 24/M04 A3005 RMK A01 T02351036  RH  016%=      5-min Rain = 0
KFR1 092303Z 20009KT 23/M04 A3005 RMK A01 T02341035  RH  016%=      5-min Rain = 0
KFR1 092304Z 20009KT 23/M03 A3005 RMK A01 T02331034  RH  017%=      5-min Rain = 0
KFR1 092305Z 20010KT 23/M04 A3005 RMK A01 T02331035  RH  016%=      5-min Rain = 0
KFR1 092306Z 20008KT 23/M04 A3005 RMK A01 T02331036  RH  016%=      5-min Rain = 0
KFR1 092307Z 20008KT 23/M03 A3005 RMK A01 T02331034  RH  017%=      5-min Rain = 0
KFR1 092308Z 20007KT 23/M03 A3005 RMK A01 T02321033  RH  017%=      5-min Rain = 0
KFR1 092309Z 20007KT 23/M03 A3005 RMK A01 T02311033  RH  017%=      5-min Rain = 0
KFR1 092310Z 20008KT 23/M03 A3005 RMK A01 T02301033  RH  017%=      5-min Rain = 0
KFR1 092311Z 20007KT 23/M03 A3005 RMK A01 T02301032  RH  017%=      5-min Rain = 0
KFR1 092312Z 20007KT 23/M03 A3005 RMK A01 T02291031  RH  017%=      5-min Rain = 0
KFR1 092313Z 20007KT 23/M03 A3005 RMK A01 T02291031  RH  017%=      5-min Rain = 0
KFR1 092314Z 20007KT 23/M03 A3005 RMK A01 T02281031  RH  018%=      5-min Rain = 0
KFR1 092315Z 20006KT 23/M03 A3005 RMK A01 T02281030  RH  018%=      5-min Rain = 0
KFR1 092316Z 20007KT 23/M03 A3005 RMK A01 T02271030  RH  018%=      5-min Rain = 0
KFR1 092317Z 21007KT 23/M03 A3005 RMK A01 T02261029  RH  018%=      5-min Rain = 0
KFR1 092318Z 20007KT 23/M03 A3005 RMK A01 T02261029  RH  018%=      5-min Rain = 0
KFR1 092319Z 20007KT 23/M03 A3005 RMK A01 T02251029  RH  018%=      5-min Rain = 0
KFR1 092320Z 20007KT 23/M03 A3005 RMK A01 T02251029  RH  018%=      5-min Rain = 0
KFR1 092321Z 20007KT 23/M03 A3005 RMK A01 T02251029  RH  018%=      5-min Rain = 0
KFR1 092322Z 20007KT 22/M03 A3005 RMK A01 T02241028  RH  018%=      5-min Rain = 0
KFR1 092323Z 20007KT 22/M03 A3005 RMK A01 T02221028  RH  019%=      5-min Rain = 0
KFR1 092324Z 20007KT 22/M03 A3005 RMK A01 T02221028  RH  019%=      5-min Rain = 0
KFR1 092325Z 20007KT 22/M03 A3005 RMK A01 T02211027  RH  019%=      5-min Rain = 0
KFR1 092326Z 20007KT 22/M03 A3005 RMK A01 T02211028  RH  019%=      5-min Rain = 0
KFR1 092327Z 20007KT 22/M03 A3005 RMK A01 T02201027  RH  019%=      5-min Rain = 0
KFR1 092328Z 20007KT 22/M03 A3005 RMK A01 T02191027  RH  019%=      5-min Rain = 0
KFR1 092329Z 20007KT 22/M03 A3005 RMK A01 T02181027  RH  019%=      5-min Rain = 0
KFR1 092330Z 20008KT 22/M03 A3005 RMK A01 T02171026  RH  019%=      5-min Rain = 0
KFR1 092331Z 20007KT 22/M03 A3005 RMK A01 T02161026  RH  020%=      5-min Rain = 0
KFR1 092332Z 20008KT 22/M03 A3005 RMK A01 T02151026  RH  020%=      5-min Rain = 0
KFR1 092333Z 20008KT 21/M03 A3005 RMK A01 T02131026  RH  020%=      5-min Rain = 0
KFR1 092334Z 20008KT 21/M03 A3005 RMK A01 T02121026  RH  020%=      5-min Rain = 0
KFR1 092335Z 20008KT 21/M03 A3005 RMK A01 T02111025  RH  020%=      5-min Rain = 0
KFR1 092336Z 19008KT 21/M03 A3005 RMK A01 T02101025  RH  020%=      5-min Rain = 0
KFR1 092337Z 19007KT 21/M03 A3005 RMK A01 T02091025  RH  021%=      5-min Rain = 0
KFR1 092338Z 20007KT 21/M03 A3005 RMK A01 T02071025  RH  021%=      5-min Rain = 0
KFR1 092339Z 20008KT 21/M03 A3005 RMK A01 T02061025  RH  021%=      5-min Rain = 0
KFR1 092340Z 19008KT 21/M03 A3005 RMK A01 T02061025  RH  021%=      5-min Rain = 0
KFR1 092341Z 20008KT 21/M03 A3005 RMK A01 T02051025  RH  021%=      5-min Rain = 0
KFR1 092342Z 19008KT 21/M02 A3005 RMK A01 T02051024  RH  021%=      5-min Rain = 0
KFR1 092343Z 19008KT 20/M02 A3005 RMK A01 T02041024  RH  021%=      5-min Rain = 0
KFR1 092344Z 20007KT 20/M02 A3005 RMK A01 T02031024  RH  021%=      5-min Rain = 0
KFR1 092345Z 20008KT 20/M02 A3005 RMK A01 T02031024  RH  022%=      5-min Rain = 0
KFR1 092346Z 20008KT 20/M02 A3005 RMK A01 T02021023  RH  022%=      5-min Rain = 0
KFR1 092347Z 20007KT 20/M02 A3005 RMK A01 T02021023  RH  022%=      5-min Rain = 0
KFR1 092348Z 20008KT 20/M02 A3005 RMK A01 T02021024  RH  022%=      5-min Rain = 0
KFR1 092349Z 20008KT 20/M02 A3005 RMK A01 T02021023  RH  022%=      5-min Rain = 0
KFR1 092350Z 20008KT 20/M02 A3005 RMK A01 T02011024  RH  022%=      5-min Rain = 0
KFR1 092351Z 20008KT 20/M02 A3005 RMK A01 T02011023  RH  022%=      5-min Rain = 0
KFR1 092352Z 20008KT 20/M02 A3005 RMK A01 T02011023  RH  022%=      5-min Rain = 0
KFR1 092353Z 20009KT 20/M02 A3005 RMK A01 T02001023  RH  022%=      5-min Rain = 0
KFR1 092354Z 20009KT 20/M02 A3005 RMK A01 T01991023  RH  022%=      5-min Rain = 0
KFR1 092355Z 20009KT 20/M02 A3005 RMK A01 T01991023  RH  022%=      5-min Rain = 0
KFR1 092356Z 20009KT 20/M02 A3005 RMK A01 T01981023  RH  022%=      5-min Rain = 0
KFR1 092357Z 20009KT 20/M02 A3005 RMK A01 T01981022  RH  022%=      5-min Rain = 0
KFR1 092358Z 20009KT 20/M02 A3005 RMK A01 T01971022  RH  023%=      5-min Rain = 0
KFR1 092359Z 20008KT 20/M02 A3005 RMK A01 T01961022  RH  023%=      5-min Rain = 0
KFR1 100000Z 20009KT 20/M02 A3005 RMK A01 T01951021  RH  023%=      5-min Rain = 0
KFR1 100001Z 19009KT 20/M02 A3005 RMK A01 T01951021  RH  023%=      5-min Rain = 0
KFR1 100002Z 19009KT 19/M02 A3005 RMK A01 T01941021  RH  023%=      5-min Rain = 0
KFR1 100003Z 19009KT 19/M02 A3005 RMK A01 T01931021  RH  023%=      5-min Rain = 0
KFR1 100004Z 19009KT 19/M02 A3005 RMK A01 T01921022  RH  023%=      5-min Rain = 0
KFR1 100005Z 19009KT 19/M02 A3005 RMK A01 T01911022  RH  024%=      5-min Rain = 0
KFR1 100006Z 19009KT 19/M02 A3005 RMK A01 T01911022  RH  024%=      5-min Rain = 0
KFR1 100007Z 19009KT 19/M02 A3005 RMK A01 T01901022  RH  024%=      5-min Rain = 0
KFR1 100008Z 19010KT 19/M02 A3005 RMK A01 T01891022  RH  024%=      5-min Rain = 0
KFR1 100009Z 19009KT 19/M02 A3005 RMK A01 T01881022  RH  024%=      5-min Rain = 0
KFR1 100010Z 19009KT 19/M02 A3005 RMK A01 T01871022  RH  024%=      5-min Rain = 0
KFR1 100011Z 19009KT 19/M02 A3005 RMK A01 T01861022  RH  024%=      5-min Rain = 0
KFR1 100012Z 20010KT 19/M02 A3005 RMK A01 T01851022  RH  025%=      5-min Rain = 0
KFR1 100013Z 19010KT 18/M02 A3005 RMK A01 T01841021  RH  025%=      5-min Rain = 0
KFR1 100014Z 19010KT 18/M02 A3005 RMK A01 T01841022  RH  025%=      5-min Rain = 0
KFR1 100015Z 19010KT 18/M02 A3005 RMK A01 T01841022  RH  025%=      5-min Rain = 0
KFR1 100016Z 19010KT 18/M02 A3005 RMK A01 T01841023  RH  024%=      5-min Rain = 0
KFR1 100017Z 19010KT 18/M02 A3005 RMK A01 T01841023  RH  024%=      5-min Rain = 0
KFR1 100018Z 19010KT 18/M02 A3005 RMK A01 T01841023  RH  024%=      5-min Rain = 0
KFR1 100019Z 19011KT 18/M02 A3005 RMK A01 T01841024  RH  024%=      5-min Rain = 0
KFR1 100020Z 19010KT 18/M02 A3005 RMK A01 T01841024  RH  024%=      5-min Rain = 0
KFR1 100021Z 19010KT 18/M02 A3005 RMK A01 T01841023  RH  024%=      5-min Rain = 0
KFR1 100022Z 19010KT 18/M02 A3005 RMK A01 T01821023  RH  025%=      5-min Rain = 0
KFR1 100023Z 19009KT 18/M02 A3005 RMK A01 T01811023  RH  025%=      5-min Rain = 0
KFR1 100024Z 19009KT 18/M02 A3005 RMK A01 T01801023  RH  025%=      5-min Rain = 0
KFR1 100025Z 19010KT 18/M02 A3005 RMK A01 T01791023  RH  025%=      5-min Rain = 0
KFR1 100026Z 19009KT 18/M02 A3005 RMK A01 T01791023  RH  025%=      5-min Rain = 0
KFR1 100027Z 19010KT 18/M02 A3005 RMK A01 T01791023  RH  025%=      5-min Rain = 0
KFR1 100028Z 19010KT 18/M02 A3004 RMK A01 T01781023  RH  025%=      5-min Rain = 0
KFR1 100029Z 19010KT 18/M02 A3005 RMK A01 T01781024  RH  025%=      5-min Rain = 0
KFR1 100030Z 19010KT 18/M02 A3005 RMK A01 T01781023  RH  025%=      5-min Rain = 0
KFR1 100031Z 19011KT 18/M02 A3004 RMK A01 T01771024  RH  025%=      5-min Rain = 0
KFR1 100032Z 19010KT 18/M02 A3004 RMK A01 T01761023  RH  026%=      5-min Rain = 0
KFR1 100033Z 19011KT 18/M02 A3004 RMK A01 T01751024  RH  026%=      5-min Rain = 0
KFR1 100034Z 19010KT 17/M02 A3004 RMK A01 T01741024  RH  026%=      5-min Rain = 0
KFR1 100035Z 19010KT 17/M02 A3004 RMK A01 T01741024  RH  026%=      5-min Rain = 0
KFR1 100036Z 19010KT 17/M02 A3004 RMK A01 T01741023  RH  026%=      5-min Rain = 0
KFR1 100037Z 19011KT 17/M02 A3004 RMK A01 T01721023  RH  026%=      5-min Rain = 0
KFR1 100038Z 19010KT 17/M02 A3004 RMK A01 T01721024  RH  026%=      5-min Rain = 0
KFR1 100039Z 19010KT 17/M02 A3004 RMK A01 T01731023  RH  026%=      5-min Rain = 0
KFR1 100040Z 19011KT 17/M02 A3004 RMK A01 T01731022  RH  026%=      5-min Rain = 0
KFR1 100041Z 19011KT 17/M02 A3004 RMK A01 T01721021  RH  027%=      5-min Rain = 0
KFR1 100042Z 19011KT 17/M02 A3004 RMK A01 T01711021  RH  027%=      5-min Rain = 0
KFR1 100043Z 19010KT 17/M02 A3004 RMK A01 T01711020  RH  027%=      5-min Rain = 0
KFR1 100044Z 19010KT 17/M02 A3004 RMK A01 T01711020  RH  027%=      5-min Rain = 0
KFR1 100045Z 19011KT 17/M02 A3004 RMK A01 T01711020  RH  027%=      5-min Rain = 0
KFR1 100046Z 19011KT 17/M02 A3004 RMK A01 T01721019  RH  027%=      5-min Rain = 0
KFR1 100047Z 19010KT 17/M02 A3004 RMK A01 T01711018  RH  027%=      5-min Rain = 0
KFR1 100048Z 19010KT 17/M02 A3004 RMK A01 T01701018  RH  028%=      5-min Rain = 0
KFR1 100049Z 19011KT 17/M02 A3004 RMK A01 T01711018  RH  028%=      5-min Rain = 0
KFR1 100050Z 19011KT 17/M02 A3004 RMK A01 T01711017  RH  028%=      5-min Rain = 0
KFR1 100051Z 19010KT 17/M02 A3004 RMK A01 T01711017  RH  028%=      5-min Rain = 0
KFR1 100052Z 19011KT 17/M02 A3004 RMK A01 T01711017  RH  028%=      5-min Rain = 0
KFR1 100053Z 19011KT 17/M02 A3004 RMK A01 T01701016  RH  028%=      5-min Rain = 0
KFR1 100054Z 19012KT 17/M02 A3004 RMK A01 T01701015  RH  028%=      5-min Rain = 0
KFR1 100055Z 19012KT 17/M01 A3004 RMK A01 T01701014  RH  028%=      5-min Rain = 0
KFR1 100056Z 19011KT 17/M01 A3004 RMK A01 T01701013  RH  029%=      5-min Rain = 0
KFR1 100057Z 19012KT 17/M01 A3004 RMK A01 T01691012  RH  029%=      5-min Rain = 0
KFR1 100058Z 19011KT 17/M01 A3004 RMK A01 T01681011  RH  029%=      5-min Rain = 0
KFR1 100059Z 19011KT 17/M01 A3004 RMK A01 T01681010  RH  030%=      5-min Rain = 0
KFR1 100100Z 19011KT 17/M01 A3004 RMK A01 T01671010  RH  030%=      5-min Rain = 0
KFR1 100101Z 19011KT 17/M01 A3004 RMK A01 T01671009  RH  030%=      5-min Rain = 0
KFR1 100102Z 19011KT 17/M01 A3004 RMK A01 T01671009  RH  030%=      5-min Rain = 0
KFR1 100103Z 19011KT 17/M01 A3004 RMK A01 T01671008  RH  030%=      5-min Rain = 0
KFR1 100104Z 19012KT 17/M01 A3004 RMK A01 T01661008  RH  030%=      5-min Rain = 0
KFR1 100105Z 19011KT 17/M01 A3004 RMK A01 T01661007  RH  031%=      5-min Rain = 0
KFR1 100106Z 19011KT 17/M01 A3004 RMK A01 T01661007  RH  031%=      5-min Rain = 0
KFR1 100107Z 19011KT 17/M01 A3004 RMK A01 T01661006  RH  031%=      5-min Rain = 0
KFR1 100108Z 19012KT 17/M01 A3004 RMK A01 T01661005  RH  031%=      5-min Rain = 0
KFR1 100109Z 19012KT 17/M00 A3004 RMK A01 T01651004  RH  032%=      5-min Rain = 0
KFR1 100110Z 19012KT 16/M00 A3004 RMK A01 T01631003  RH  032%=      5-min Rain = 0
KFR1 100111Z 19012KT 16/M00 A3004 RMK A01 T01621003  RH  033%=      5-min Rain = 0
KFR1 100112Z 19012KT 16/M00 A3004 RMK A01 T01621002  RH  033%=      5-min Rain = 0
KFR1 100113Z 19012KT 16/M00 A3004 RMK A01 T01611001  RH  033%=      5-min Rain = 0
KFR1 100114Z 19012KT 16/M00 A3004 RMK A01 T01601001  RH  033%=      5-min Rain = 0
KFR1 100115Z 19013KT 16/00 A3004 RMK A01 T016000-0  RH  034%=      5-min Rain = 0
KFR1 100116Z 19012KT 16/00 A3004 RMK A01 T01600000  RH  034%=      5-min Rain = 0
KFR1 100117Z 19013KT 16/00 A3004 RMK A01 T01590001  RH  034%=      5-min Rain = 0
KFR1 100118Z 19013KT 16/00 A3004 RMK A01 T01590001  RH  034%=      5-min Rain = 0
KFR1 100119Z 19012KT 16/00 A3004 RMK A01 T01580001  RH  034%=      5-min Rain = 0
KFR1 100120Z 19013KT 16/00 A3004 RMK A01 T01580001  RH  034%=      5-min Rain = 0
KFR1 100121Z 19012KT 16/00 A3004 RMK A01 T01580001  RH  034%=      5-min Rain = 0
KFR1 100122Z 19012KT 16/00 A3004 RMK A01 T01580001  RH  034%=      5-min Rain = 0
KFR1 100123Z 19013KT 16/00 A3004 RMK A01 T01580001  RH  034%=      5-min Rain = 0
KFR1 100124Z 19012KT 16/00 A3004 RMK A01 T01580001  RH  034%=      5-min Rain = 0
KFR1 100125Z 19013KT 16/00 A3004 RMK A01 T01580001  RH  034%=      5-min Rain = 0
KFR1 100126Z 19013KT 16/00 A3004 RMK A01 T01590001  RH  034%=      5-min Rain = 0
KFR1 100127Z 19014KT 16/00 A3004 RMK A01 T01590001  RH  034%=      5-min Rain = 0
KFR1 100128Z 19013KT 16/00 A3004 RMK A01 T01590001  RH  034%=      5-min Rain = 0
KFR1 100129Z 20013KT 16/00 A3004 RMK A01 T01590001  RH  034%=      5-min Rain = 0
KFR1 100130Z 20013KT 16/00 A3004 RMK A01 T01590001  RH  034%=      5-min Rain = 0
KFR1 100131Z 19013KT 16/00 A3004 RMK A01 T01590001  RH  034%=      5-min Rain = 0
KFR1 100132Z 20013KT 16/00 A3004 RMK A01 T01580001  RH  034%=      5-min Rain = 0
KFR1 100133Z 20013KT 16/00 A3004 RMK A01 T01580001  RH  034%=      5-min Rain = 0
KFR1 100134Z 20013KT 16/00 A3004 RMK A01 T01580000  RH  034%=      5-min Rain = 0
KFR1 100135Z 20013KT 16/00 A3004 RMK A01 T01570000  RH  034%=      5-min Rain = 0
KFR1 100136Z 20013KT 16/00 A3004 RMK A01 T01570000  RH  034%=      5-min Rain = 0
KFR1 100137Z 20013KT 16/00 A3004 RMK A01 T01570000  RH  034%=      5-min Rain = 0
KFR1 100138Z 20012KT 16/00 A3004 RMK A01 T01560000  RH  035%=      5-min Rain = 0
KFR1 100139Z 20013KT 16/00 A3004 RMK A01 T01550000  RH  035%=      5-min Rain = 0
KFR1 100140Z 20012KT 15/00 A3004 RMK A01 T01540000  RH  035%=      5-min Rain = 0
KFR1 100141Z 20012KT 15/00 A3004 RMK A01 T01540001  RH  035%=      5-min Rain = 0
KFR1 100142Z 20012KT 15/00 A3004 RMK A01 T01530000  RH  035%=      5-min Rain = 0
KFR1 100143Z 20012KT 15/00 A3004 RMK A01 T01520001  RH  036%=      5-min Rain = 0
KFR1 100144Z 20012KT 15/00 A3004 RMK A01 T01500000  RH  036%=      5-min Rain = 0
KFR1 100145Z 20011KT 15/00 A3004 RMK A01 T01490001  RH  036%=      5-min Rain = 0
KFR1 100146Z 20012KT 15/00 A3004 RMK A01 T01480000  RH  036%=      5-min Rain = 0
KFR1 100147Z 20011KT 15/00 A3004 RMK A01 T01480000  RH  036%=      5-min Rain = 0
KFR1 100148Z 20012KT 15/00 A3004 RMK A01 T01480000  RH  036%=      5-min Rain = 0
KFR1 100149Z 20012KT 15/00 A3004 RMK A01 T01470000  RH  036%=      5-min Rain = 0
KFR1 100150Z 20012KT 15/00 A3004 RMK A01 T014700-0  RH  037%=      5-min Rain = 0
KFR1 100151Z 20012KT 15/M00 A3004 RMK A01 T01471001  RH  036%=      5-min Rain = 0
KFR1 100152Z 21012KT 15/M00 A3004 RMK A01 T01471001  RH  036%=      5-min Rain = 0
KFR1 100153Z 20012KT 15/M00 A3004 RMK A01 T01481001  RH  036%=      5-min Rain = 0
KFR1 100154Z 21012KT 15/M00 A3004 RMK A01 T01481001  RH  036%=      5-min Rain = 0
KFR1 100155Z 21012KT 15/M00 A3004 RMK A01 T01481002  RH  036%=      5-min Rain = 0
KFR1 100156Z 21012KT 15/M00 A3004 RMK A01 T01491002  RH  036%=      5-min Rain = 0
KFR1 100157Z 20011KT 15/M00 A3004 RMK A01 T01501002  RH  035%=      5-min Rain = 0
KFR1 100158Z 21012KT 15/M00 A3005 RMK A01 T01511002  RH  035%=      5-min Rain = 0
KFR1 100159Z 21011KT 15/M00 A3005 RMK A01 T01511002  RH  035%=      5-min Rain = 0
KFR1 100200Z 21012KT 15/M00 A3005 RMK A01 T01511003  RH  035%=      5-min Rain = 0
KFR1 100201Z 21011KT 15/M00 A3005 RMK A01 T01511003  RH  035%=      5-min Rain = 0
KFR1 100202Z 21012KT 15/M00 A3005 RMK A01 T01511003  RH  035%=      5-min Rain = 0
KFR1 100203Z 21012KT 15/M00 A3005 RMK A01 T01521003  RH  035%=      5-min Rain = 0
KFR1 100204Z 21012KT 15/M00 A3005 RMK A01 T01531004  RH  034%=      5-min Rain = 0
KFR1 100205Z 21013KT 16/M00 A3005 RMK A01 T01551004  RH  034%=      5-min Rain = 0
KFR1 100206Z 21013KT 16/M00 A3005 RMK A01 T01551004  RH  034%=      5-min Rain = 0
KFR1 100207Z 21013KT 16/M00 A3005 RMK A01 T01551003  RH  034%=      5-min Rain = 0
KFR1 100208Z 21014KT 16/M00 A3005 RMK A01 T01551004  RH  034%=      5-min Rain = 0
KFR1 100209Z 21013KT 16/M00 A3005 RMK A01 T01561004  RH  034%=      5-min Rain = 0
KFR1 100210Z 21013KT 16/M00 A3005 RMK A01 T01581004  RH  033%=      5-min Rain = 0
KFR1 100211Z 21013KT 16/M00 A3005 RMK A01 T01581004  RH  033%=      5-min Rain = 0
KFR1 100212Z 21014KT 16/M00 A3005 RMK A01 T01581004  RH  033%=      5-min Rain = 0
KFR1 100213Z 21014KT 16/M00 A3005 RMK A01 T01591004  RH  033%=      5-min Rain = 0
KFR1 100214Z 21013KT 16/M00 A3005 RMK A01 T01601004  RH  033%=      5-min Rain = 0
KFR1 100215Z 21014KT 16/M00 A3005 RMK A01 T01601004  RH  033%=      5-min Rain = 0
KFR1 100216Z 21014KT 16/M00 A3005 RMK A01 T01591004  RH  033%=      5-min Rain = 0
KFR1 100217Z 21014KT 16/M00 A3005 RMK A01 T01591004  RH  033%=      5-min Rain = 0
KFR1 100218Z 21014KT 16/M00 A3005 RMK A01 T01581004  RH  033%=      5-min Rain = 0
KFR1 100219Z 21014KT 16/M00 A3005 RMK A01 T01581004  RH  033%=      5-min Rain = 0
KFR1 100220Z 21014KT 16/M00 A3005 RMK A01 T01571004  RH  033%=      5-min Rain = 0
KFR1 100221Z 21013KT 16/M00 A3005 RMK A01 T01561004  RH  033%=      5-min Rain = 0
KFR1 100222Z 21014KT 16/M00 A3005 RMK A01 T01561004  RH  034%=      5-min Rain = 0
KFR1 100223Z 21014KT 16/M00 A3005 RMK A01 T01551003  RH  034%=      5-min Rain = 0
KFR1 100224Z 21014KT 16/M00 A3005 RMK A01 T01551004  RH  034%=      5-min Rain = 0
KFR1 100225Z 21014KT 16/M00 A3005 RMK A01 T01551003  RH  034%=      5-min Rain = 0
KFR1 100226Z 21013KT 15/M00 A3005 RMK A01 T01541003  RH  034%=      5-min Rain = 0
KFR1 100227Z 21013KT 15/M00 A3005 RMK A01 T01531003  RH  034%=      5-min Rain = 0
KFR1 100228Z 21013KT 15/M00 A3005 RMK A01 T01521003  RH  035%=      5-min Rain = 0
KFR1 100229Z 21012KT 15/M00 A3005 RMK A01 T01521003  RH  035%=      5-min Rain = 0
KFR1 100230Z 22013KT 15/M00 A3005 RMK A01 T01511003  RH  035%=      5-min Rain = 0
KFR1 100231Z 21012KT 15/M00 A3005 RMK A01 T01511003  RH  035%=      5-min Rain = 0
KFR1 100232Z 22012KT 15/M00 A3005 RMK A01 T01511003  RH  035%=      5-min Rain = 0
KFR1 100233Z 21012KT 15/M00 A3005 RMK A01 T01501003  RH  035%=      5-min Rain = 0
KFR1 100234Z 21012KT 15/M00 A3005 RMK A01 T01501003  RH  035%=      5-min Rain = 0
KFR1 100235Z 21013KT 15/M00 A3005 RMK A01 T01501003  RH  035%=      5-min Rain = 0
KFR1 100236Z 21013KT 15/M00 A3005 RMK A01 T01501003  RH  035%=      5-min Rain = 0
KFR1 100237Z 21012KT 15/M00 A3005 RMK A01 T01501003  RH  035%=      5-min Rain = 0
KFR1 100238Z 21012KT 15/M00 A3005 RMK A01 T01501004  RH  035%=      5-min Rain = 0
KFR1 100239Z 21012KT 15/M00 A3005 RMK A01 T01491003  RH  035%=      5-min Rain = 0
KFR1 100240Z 22012KT 15/M00 A3005 RMK A01 T01491003  RH  035%=      5-min Rain = 0
KFR1 100241Z 22013KT 15/M00 A3005 RMK A01 T01491003  RH  035%=      5-min Rain = 0
KFR1 100242Z 21013KT 15/M00 A3005 RMK A01 T01481003  RH  035%=      5-min Rain = 0
KFR1 100243Z 21013KT 15/M00 A3005 RMK A01 T01481004  RH  035%=      5-min Rain = 0
KFR1 100244Z 21013KT 15/M00 A3005 RMK A01 T01491003  RH  035%=      5-min Rain = 0
KFR1 100245Z 22013KT 15/M00 A3005 RMK A01 T01491003  RH  035%=      5-min Rain = 0
KFR1 100246Z 22013KT 15/M00 A3005 RMK A01 T01501003  RH  035%=      5-min Rain = 0
KFR1 100247Z 22012KT 15/M00 A3005 RMK A01 T01501004  RH  035%=      5-min Rain = 0
KFR1 100248Z 21013KT 15/M00 A3005 RMK A01 T01511004  RH  035%=      5-min Rain = 0
KFR1 100249Z 22012KT 15/M00 A3005 RMK A01 T01501003  RH  035%=      5-min Rain = 0
KFR1 100250Z 22013KT 15/M00 A3005 RMK A01 T01501004  RH  035%=      5-min Rain = 0
KFR1 100251Z 22013KT 15/M00 A3005 RMK A01 T01501003  RH  035%=      5-min Rain = 0
KFR1 100252Z 22013KT 15/M00 A3005 RMK A01 T01501003  RH  035%=      5-min Rain = 0
KFR1 100253Z 22013KT 15/M00 A3005 RMK A01 T01491003  RH  035%=      5-min Rain = 0
KFR1 100254Z 22014KT 15/M00 A3005 RMK A01 T01491003  RH  035%=      5-min Rain = 0
KFR1 100255Z 22013KT 15/M00 A3005 RMK A01 T01481003  RH  035%=      5-min Rain = 0
KFR1 100256Z 22012KT 15/M00 A3005 RMK A01 T01471003  RH  036%=      5-min Rain = 0
KFR1 100257Z 22012KT 15/M00 A3005 RMK A01 T01471003  RH  036%=      5-min Rain = 0
KFR1 100258Z 22012KT 15/M00 A3005 RMK A01 T01461003  RH  036%=      5-min Rain = 0
KFR1 100259Z 22013KT 15/M00 A3005 RMK A01 T01471003  RH  036%=      5-min Rain = 0
KFR1 100300Z 22013KT 15/M00 A3006 RMK A01 T01471003  RH  036%=      5-min Rain = 0
KFR1 100301Z 22011KT 15/M00 A3006 RMK A01 T01481003  RH  036%=      5-min Rain = 0
KFR1 100302Z 22013KT 15/M00 A3006 RMK A01 T01461003  RH  036%=      5-min Rain = 0
KFR1 100303Z 22013KT 15/M00 A3006 RMK A01 T01471003  RH  036%=      5-min Rain = 0
KFR1 100304Z 22011KT 15/M00 A3006 RMK A01 T01461003  RH  036%=      5-min Rain = 0
KFR1 100305Z 22013KT 15/M00 A3006 RMK A01 T01461003  RH  036%=      5-min Rain = 0
KFR1 100306Z 22011KT 15/M00 A3006 RMK A01 T01461003  RH  036%=      5-min Rain = 0
KFR1 100307Z 22012KT 15/M00 A3006 RMK A01 T01451003  RH  036%=      5-min Rain = 0
KFR1 100308Z 22011KT 15/M00 A3006 RMK A01 T01451003  RH  036%=      5-min Rain = 0
KFR1 100309Z 22011KT 15/M00 A3006 RMK A01 T01451003  RH  036%=      5-min Rain = 0
KFR1 100310Z 22010KT 15/M00 A3006 RMK A01 T01451003  RH  036%=      5-min Rain = 0
KFR1 100311Z 22010KT 15/M00 A3006 RMK A01 T01451003  RH  036%=      5-min Rain = 0
KFR1 100312Z 22010KT 14/M00 A3006 RMK A01 T01431003  RH  037%=      5-min Rain = 0
KFR1 100313Z 22011KT 14/M00 A3006 RMK A01 T01431002  RH  037%=      5-min Rain = 0
KFR1 100314Z 22011KT 14/M00 A3006 RMK A01 T01431003  RH  037%=      5-min Rain = 0
KFR1 100315Z 22010KT 14/M00 A3006 RMK A01 T01421002  RH  037%=      5-min Rain = 0
KFR1 100316Z 22010KT 14/M00 A3006 RMK A01 T01411002  RH  037%=      5-min Rain = 0
KFR1 100317Z 22010KT 14/M00 A3006 RMK A01 T01411003  RH  037%=      5-min Rain = 0
KFR1 100318Z 22011KT 14/M00 A3006 RMK A01 T01411003  RH  037%=      5-min Rain = 0
KFR1 100319Z 22010KT 14/M00 A3006 RMK A01 T01411003  RH  037%=      5-min Rain = 0
KFR1 100320Z 22010KT 14/M00 A3006 RMK A01 T01411003  RH  037%=      5-min Rain = 0
KFR1 100321Z 22010KT 14/M00 A3006 RMK A01 T01401002  RH  038%=      5-min Rain = 0
KFR1 100322Z 22010KT 14/M00 A3006 RMK A01 T01401002  RH  038%=      5-min Rain = 0
KFR1 100323Z 22009KT 14/M00 A3006 RMK A01 T01391002  RH  038%=      5-min Rain = 0
KFR1 100324Z 22010KT 14/M00 A3006 RMK A01 T01381002  RH  038%=      5-min Rain = 0
KFR1 100325Z 22009KT 14/M00 A3006 RMK A01 T01371002  RH  038%=      5-min Rain = 0
KFR1 100326Z 22010KT 14/M00 A3006 RMK A01 T01371003  RH  038%=      5-min Rain = 0
KFR1 100327Z 22009KT 14/M00 A3006 RMK A01 T01371003  RH  038%=      5-min Rain = 0
KFR1 100328Z 22009KT 14/M00 A3006 RMK A01 T01381002  RH  038%=      5-min Rain = 0
KFR1 100329Z 22010KT 14/M00 A3006 RMK A01 T01381002  RH  038%=      5-min Rain = 0
KFR1 100330Z 22009KT 14/M00 A3006 RMK A01 T01371003  RH  038%=      5-min Rain = 0
KFR1 100331Z 22008KT 14/M00 A3007 RMK A01 T01361002  RH  038%=      5-min Rain = 0
KFR1 100332Z 22008KT 14/M00 A3007 RMK A01 T01351002  RH  039%=      5-min Rain = 0
KFR1 100333Z 22008KT 13/M00 A3007 RMK A01 T01341002  RH  039%=      5-min Rain = 0
KFR1 100334Z 22008KT 13/M00 A3007 RMK A01 T01341002  RH  039%=      5-min Rain = 0
KFR1 100335Z 22008KT 13/M00 A3007 RMK A01 T01331002  RH  039%=      5-min Rain = 0
KFR1 100336Z 22008KT 13/M00 A3006 RMK A01 T01321002  RH  040%=      5-min Rain = 0
KFR1 100337Z 22008KT 13/M00 A3006 RMK A01 T01321002  RH  040%=      5-min Rain = 0
KFR1 100338Z 22008KT 13/M00 A3006 RMK A01 T01321002  RH  040%=      5-min Rain = 0
KFR1 100339Z 22008KT 13/M00 A3006 RMK A01 T01321002  RH  040%=      5-min Rain = 0
KFR1 100340Z 22009KT 13/M00 A3006 RMK A01 T01321002  RH  040%=      5-min Rain = 0
KFR1 100341Z 22008KT 13/M00 A3006 RMK A01 T01321002  RH  040%=      5-min Rain = 0
KFR1 100342Z 22008KT 13/M00 A3006 RMK A01 T01321002  RH  040%=      5-min Rain = 0
KFR1 100343Z 22008KT 13/M00 A3006 RMK A01 T01321001  RH  040%=      5-min Rain = 0
KFR1 100344Z 22009KT 13/M00 A3006 RMK A01 T01311002  RH  040%=      5-min Rain = 0
KFR1 100345Z 22009KT 13/M00 A3006 RMK A01 T01311002  RH  040%=      5-min Rain = 0
KFR1 100346Z 22009KT 13/M00 A3006 RMK A01 T01321001  RH  040%=      5-min Rain = 0
KFR1 100347Z 22009KT 13/M00 A3006 RMK A01 T01321001  RH  040%=      5-min Rain = 0
KFR1 100348Z 22009KT 13/M00 A3006 RMK A01 T01321002  RH  040%=      5-min Rain = 0
KFR1 100349Z 22009KT 13/M00 A3006 RMK A01 T01311002  RH  040%=      5-min Rain = 0
KFR1 100350Z 22009KT 13/M00 A3006 RMK A01 T01311002  RH  040%=      5-min Rain = 0
KFR1 100351Z 22009KT 13/M00 A3006 RMK A01 T01311002  RH  040%=      5-min Rain = 0
KFR1 100352Z 21009KT 13/M00 A3006 RMK A01 T01311002  RH  040%=      5-min Rain = 0
KFR1 100353Z 22009KT 13/M00 A3006 RMK A01 T01301002  RH  040%=      5-min Rain = 0
KFR1 100354Z 22009KT 13/M00 A3006 RMK A01 T01291001  RH  041%=      5-min Rain = 0
KFR1 100355Z 22008KT 13/M00 A3006 RMK A01 T01291001  RH  041%=      5-min Rain = 0
KFR1 100356Z 22008KT 13/M00 A3006 RMK A01 T01281001  RH  041%=      5-min Rain = 0
KFR1 100357Z 22009KT 13/M00 A3006 RMK A01 T01281001  RH  041%=      5-min Rain = 0
KFR1 100358Z 22009KT 13/M00 A3006 RMK A01 T01291001  RH  041%=      5-min Rain = 0
KFR1 100359Z 22010KT 13/M00 A3006 RMK A01 T01291001  RH  041%=      5-min Rain = 0
KFR1 100400Z 22010KT 13/M00 A3006 RMK A01 T01291001  RH  041%=      5-min Rain = 0
KFR1 100401Z 22010KT 13/M00 A3006 RMK A01 T01291001  RH  041%=      5-min Rain = 0
KFR1 100402Z 22010KT 13/M00 A3006 RMK A01 T01291001  RH  041%=      5-min Rain = 0
KFR1 100403Z 21010KT 13/M00 A3006 RMK A01 T01291001  RH  041%=      5-min Rain = 0
KFR1 100404Z 22010KT 13/M00 A3006 RMK A01 T01291001  RH  041%=      5-min Rain = 0
KFR1 100405Z 22010KT 13/M00 A3006 RMK A01 T01291001  RH  041%=      5-min Rain = 0
KFR1 100406Z 22010KT 13/M00 A3006 RMK A01 T01291001  RH  041%=      5-min Rain = 0
KFR1 100407Z 22010KT 13/M00 A3006 RMK A01 T01291001  RH  041%=      5-min Rain = 0
KFR1 100408Z 22010KT 13/M00 A3006 RMK A01 T01291001  RH  041%=      5-min Rain = 0
KFR1 100409Z 21010KT 13/00 A3006 RMK A01 T012800-0  RH  041%=      5-min Rain = 0
KFR1 100410Z 21010KT 13/M00 A3006 RMK A01 T01271001  RH  041%=      5-min Rain = 0
KFR1 100411Z 21010KT 13/M00 A3006 RMK A01 T01251001  RH  042%=      5-min Rain = 0
KFR1 100412Z 21010KT 12/M00 A3006 RMK A01 T01231001  RH  042%=      5-min Rain = 0
KFR1 100413Z 21010KT 12/M00 A3006 RMK A01 T01221001  RH  043%=      5-min Rain = 0
KFR1 100414Z 21010KT 12/M00 A3006 RMK A01 T01221001  RH  043%=      5-min Rain = 0
KFR1 100415Z 21011KT 12/M00 A3006 RMK A01 T01221001  RH  043%=      5-min Rain = 0
KFR1 100416Z 21010KT 12/M00 A3006 RMK A01 T01221001  RH  043%=      5-min Rain = 0
KFR1 100417Z 21011KT 12/M00 A3006 RMK A01 T01201001  RH  043%=      5-min Rain = 0
KFR1 100418Z 21011KT 12/M00 A3006 RMK A01 T01181001  RH  044%=      5-min Rain = 0
KFR1 100419Z 21011KT 12/M00 A3006 RMK A01 T01181001  RH  044%=      5-min Rain = 0
KFR1 100420Z 21011KT 12/00 A3006 RMK A01 T011800-0  RH  044%=      5-min Rain = 0
KFR1 100421Z 21011KT 12/00 A3006 RMK A01 T011700-0  RH  044%=      5-min Rain = 0
KFR1 100422Z 21011KT 12/00 A3006 RMK A01 T011700-0  RH  044%=      5-min Rain = 0
KFR1 100423Z 21011KT 12/00 A3006 RMK A01 T01170000  RH  045%=      5-min Rain = 0
KFR1 100424Z 21012KT 12/00 A3006 RMK A01 T01170000  RH  045%=      5-min Rain = 0
KFR1 100425Z 21011KT 12/00 A3006 RMK A01 T01170000  RH  045%=      5-min Rain = 0
KFR1 100426Z 21011KT 12/00 A3006 RMK A01 T01170000  RH  045%=      5-min Rain = 0
KFR1 100427Z 21012KT 12/00 A3006 RMK A01 T01170000  RH  044%=      5-min Rain = 0
KFR1 100428Z 21012KT 12/00 A3006 RMK A01 T01180001  RH  044%=      5-min Rain = 0
KFR1 100429Z 21011KT 12/00 A3006 RMK A01 T01180000  RH  044%=      5-min Rain = 0
KFR1 100430Z 21011KT 12/00 A3006 RMK A01 T01190001  RH  044%=      5-min Rain = 0
KFR1 100431Z 21011KT 12/00 A3006 RMK A01 T01180001  RH  044%=      5-min Rain = 0
KFR1 100432Z 21011KT 12/00 A3006 RMK A01 T01180001  RH  045%=      5-min Rain = 0
KFR1 100433Z 21011KT 12/00 A3006 RMK A01 T01170001  RH  045%=      5-min Rain = 0
KFR1 100434Z 21011KT 12/00 A3006 RMK A01 T01170001  RH  045%=      5-min Rain = 0
KFR1 100435Z 21011KT 12/00 A3006 RMK A01 T01170001  RH  045%=      5-min Rain = 0
KFR1 100436Z 21011KT 12/00 A3006 RMK A01 T01170001  RH  045%=      5-min Rain = 0
KFR1 100437Z 21010KT 12/00 A3006 RMK A01 T01170001  RH  045%=      5-min Rain = 0
KFR1 100438Z 21011KT 12/00 A3006 RMK A01 T01150001  RH  045%=      5-min Rain = 0
KFR1 100439Z 21010KT 12/00 A3006 RMK A01 T01150001  RH  045%=      5-min Rain = 0
KFR1 100440Z 21010KT 12/00 A3006 RMK A01 T01150001  RH  046%=      5-min Rain = 0
KFR1 100441Z 20010KT 11/00 A3006 RMK A01 T01140001  RH  046%=      5-min Rain = 0
KFR1 100442Z 21011KT 11/00 A3006 RMK A01 T01130001  RH  046%=      5-min Rain = 0
KFR1 100443Z 20010KT 11/00 A3006 RMK A01 T01120001  RH  046%=      5-min Rain = 0
KFR1 100444Z 20011KT 11/00 A3006 RMK A01 T01110001  RH  047%=      5-min Rain = 0
KFR1 100445Z 20010KT 11/00 A3006 RMK A01 T01090001  RH  047%=      5-min Rain = 0
KFR1 100446Z 20010KT 11/00 A3006 RMK A01 T01080001  RH  047%=      5-min Rain = 0
KFR1 100447Z 20011KT 11/00 A3006 RMK A01 T01070001  RH  048%=      5-min Rain = 0
KFR1 100448Z 20011KT 11/00 A3006 RMK A01 T01070001  RH  048%=      5-min Rain = 0
KFR1 100449Z 20011KT 11/00 A3006 RMK A01 T01060001  RH  048%=      5-min Rain = 0
KFR1 100450Z 20011KT 11/00 A3006 RMK A01 T01060001  RH  048%=      5-min Rain = 0
KFR1 100451Z 20010KT 11/00 A3006 RMK A01 T01060001  RH  048%=      5-min Rain = 0
KFR1 100452Z 20011KT 11/00 A3006 RMK A01 T01060001  RH  048%=      5-min Rain = 0
KFR1 100453Z 20011KT 11/00 A3006 RMK A01 T01060001  RH  048%=      5-min Rain = 0
KFR1 100454Z 20011KT 11/00 A3006 RMK A01 T01070001  RH  048%=      5-min Rain = 0
KFR1 100455Z 21011KT 11/00 A3006 RMK A01 T01070001  RH  048%=      5-min Rain = 0
KFR1 100456Z 21011KT 11/00 A3005 RMK A01 T01080001  RH  048%=      5-min Rain = 0
KFR1 100457Z 21010KT 11/00 A3005 RMK A01 T01090001  RH  047%=      5-min Rain = 0
KFR1 100458Z 21011KT 11/00 A3005 RMK A01 T01100001  RH  047%=      5-min Rain = 0
KFR1 100459Z 20011KT 11/00 A3005 RMK A01 T01120001  RH  046%=      5-min Rain = 0
KFR1 100500Z 21010KT 11/00 A3005 RMK A01 T01120001  RH  046%=      5-min Rain = 0
KFR1 100501Z 21010KT 11/00 A3005 RMK A01 T01130000  RH  046%=      5-min Rain = 0
KFR1 100502Z 21010KT 11/00 A3005 RMK A01 T01130000  RH  046%=      5-min Rain = 0
KFR1 100503Z 21010KT 11/00 A3005 RMK A01 T01130001  RH  046%=      5-min Rain = 0
KFR1 100504Z 21010KT 11/00 A3005 RMK A01 T01130000  RH  046%=      5-min Rain = 0
KFR1 100505Z 21010KT 11/00 A3005 RMK A01 T01130000  RH  046%=      5-min Rain = 0
KFR1 100506Z 21010KT 11/00 A3005 RMK A01 T01130001  RH  046%=      5-min Rain = 0
KFR1 100507Z 21010KT 11/00 A3005 RMK A01 T01130000  RH  046%=      5-min Rain = 0
KFR1 100508Z 21009KT 11/00 A3005 RMK A01 T01130000  RH  046%=      5-min Rain = 0
KFR1 100509Z 21009KT 11/00 A3005 RMK A01 T01120000  RH  046%=      5-min Rain = 0
KFR1 100510Z 21010KT 11/00 A3005 RMK A01 T01120000  RH  046%=      5-min Rain = 0
KFR1 100511Z 21009KT 11/00 A3005 RMK A01 T011100-0  RH  046%=      5-min Rain = 0
KFR1 100512Z 21009KT 11/00 A3005 RMK A01 T011100-0  RH  046%=      5-min Rain = 0
KFR1 100513Z 21009KT 11/00 A3005 RMK A01 T011100-0  RH  046%=      5-min Rain = 0
KFR1 100514Z 21008KT 11/00 A3005 RMK A01 T011000-0  RH  046%=      5-min Rain = 0
KFR1 100515Z 21009KT 11/00 A3005 RMK A01 T010900-0  RH  047%=      5-min Rain = 0
KFR1 100516Z 21008KT 11/00 A3005 RMK A01 T010800-0  RH  047%=      5-min Rain = 0
KFR1 100517Z 21008KT 11/00 A3005 RMK A01 T010800-0  RH  047%=      5-min Rain = 0
KFR1 100518Z 21008KT 11/00 A3005 RMK A01 T010900-0  RH  047%=      5-min Rain = 0
KFR1 100519Z 21009KT 11/00 A3005 RMK A01 T010800-0  RH  047%=      5-min Rain = 0
KFR1 100520Z 21008KT 11/00 A3005 RMK A01 T010800-0  RH  047%=      5-min Rain = 0
KFR1 100521Z 21007KT 11/00 A3005 RMK A01 T010700-0  RH  047%=      5-min Rain = 0
KFR1 100522Z 21008KT 11/M00 A3005 RMK A01 T01061001  RH  048%=      5-min Rain = 0
KFR1 100523Z 21008KT 11/00 A3005 RMK A01 T010600-0  RH  048%=      5-min Rain = 0
KFR1 100524Z 21008KT 11/M00 A3005 RMK A01 T01061001  RH  048%=      5-min Rain = 0
KFR1 100525Z 22007KT 11/00 A3005 RMK A01 T010600-0  RH  048%=      5-min Rain = 0
KFR1 100526Z 22007KT 11/M00 A3005 RMK A01 T01061001  RH  048%=      5-min Rain = 0
KFR1 100527Z 22006KT 11/00 A3005 RMK A01 T010700-0  RH  047%=      5-min Rain = 0
KFR1 100528Z 21006KT 11/M00 A3005 RMK A01 T01061001  RH  047%=      5-min Rain = 0
KFR1 100529Z 21006KT 11/00 A3005 RMK A01 T010600-0  RH  048%=      5-min Rain = 0
KFR1 100530Z 22006KT 11/00 A3005 RMK A01 T010500-0  RH  048%=      5-min Rain = 0
KFR1 100531Z 21006KT 10/M00 A3005 RMK A01 T01041001  RH  048%=      5-min Rain = 0
KFR1 100532Z 21007KT 10/M00 A3005 RMK A01 T01041001  RH  048%=      5-min Rain = 0
KFR1 100533Z 21007KT 10/M00 A3005 RMK A01 T01021001  RH  049%=      5-min Rain = 0
KFR1 100534Z 21008KT 10/M00 A3004 RMK A01 T01011001  RH  049%=      5-min Rain = 0
KFR1 100535Z 21008KT 10/M00 A3004 RMK A01 T01001001  RH  050%=      5-min Rain = 0
KFR1 100536Z 21009KT 10/M00 A3004 RMK A01 T00981001  RH  050%=      5-min Rain = 0
KFR1 100537Z 21009KT 10/M00 A3004 RMK A01 T00971001  RH  050%=      5-min Rain = 0
KFR1 100538Z 21009KT 10/M00 A3004 RMK A01 T00971001  RH  051%=      5-min Rain = 0
KFR1 100539Z 21010KT 10/M00 A3004 RMK A01 T00961001  RH  051%=      5-min Rain = 0
KFR1 100540Z 21009KT 10/M00 A3004 RMK A01 T00961001  RH  051%=      5-min Rain = 0
KFR1 100541Z 21010KT 10/M00 A3004 RMK A01 T00951001  RH  051%=      5-min Rain = 0
KFR1 100542Z 21009KT 10/00 A3004 RMK A01 T009600-0  RH  051%=      5-min Rain = 0
KFR1 100543Z 21010KT 10/00 A3004 RMK A01 T009800-0  RH  051%=      5-min Rain = 0
KFR1 100544Z 22010KT 10/00 A3004 RMK A01 T01000000  RH  050%=      5-min Rain = 0
KFR1 100545Z 22010KT 10/00 A3004 RMK A01 T01020000  RH  049%=      5-min Rain = 0
KFR1 100546Z 21010KT 11/00 A3004 RMK A01 T01050001  RH  048%=      5-min Rain = 0
KFR1 100547Z 21010KT 11/00 A3004 RMK A01 T01080001  RH  048%=      5-min Rain = 0
KFR1 100548Z 22009KT 11/00 A3004 RMK A01 T01090000  RH  047%=      5-min Rain = 0
KFR1 100549Z 22010KT 11/00 A3004 RMK A01 T01090000  RH  047%=      5-min Rain = 0
KFR1 100550Z 22009KT 11/00 A3004 RMK A01 T01110000  RH  046%=      5-min Rain = 0
KFR1 100551Z 22008KT 11/00 A3004 RMK A01 T01120000  RH  046%=      5-min Rain = 0
KFR1 100552Z 22008KT 11/00 A3004 RMK A01 T01130000  RH  046%=      5-min Rain = 0
KFR1 100553Z 22007KT 11/00 A3004 RMK A01 T01130000  RH  046%=      5-min Rain = 0
KFR1 100554Z 22007KT 11/00 A3004 RMK A01 T01130000  RH  046%=      5-min Rain = 0
KFR1 100555Z 23006KT 11/00 A3004 RMK A01 T01120000  RH  046%=      5-min Rain = 0
KFR1 100556Z 23006KT 11/00 A3004 RMK A01 T011000-0  RH  047%=      5-min Rain = 0
KFR1 100557Z 23006KT 11/M00 A3004 RMK A01 T01081001  RH  047%=      5-min Rain = 0
KFR1 100558Z 24005KT 11/M00 A3004 RMK A01 T01061001  RH  048%=      5-min Rain = 0
KFR1 100559Z 24004KT 11/M00 A3004 RMK A01 T01051001  RH  048%=      5-min Rain = 0

Page generated in 0.1599 seconds.